Wetterdaten: Dienstag, 14.07.2015
Datum Zeit Temp. Aussen +5cm Feuchte Auss BlattFeu 1 Luftdruck Regen Sonnenschein Regendauer Solar Windben
14.07.2015 00:00 17,0 C 15,6 C 97 % 15 lf 1015,3 hPa 0,0 l/m 0 min 2 min 0 W/m 14,6 km/h (3 Bft)
14.07.2015 00:02 17,0 C 15,6 C 97 % 15 lf 1015,3 hPa 0,0 l/m 0 min 2 min 0 W/m 20,9 km/h (4 Bft)
14.07.2015 00:05 17,0 C 15,6 C 97 % 15 lf 1015,3 hPa 0,0 l/m 0 min 2 min 0 W/m 23,0 km/h (4 Bft)
14.07.2015 00:07 17,0 C 15,6 C 97 % 15 lf 1015,3 hPa 0,0 l/m 0 min 2 min 0 W/m 23,0 km/h (4 Bft)
14.07.2015 00:08 16,9 C 15,6 C 97 % 15 lf 1015,3 hPa 0,0 l/m 0 min 1 min 0 W/m 12,6 km/h (3 Bft)
14.07.2015 00:10 16,9 C 15,6 C 97 % 15 lf 1015,2 hPa 0,0 l/m 0 min 2 min 0 W/m 20,9 km/h (4 Bft)
14.07.2015 00:12 16,9 C 15,6 C 97 % 15 lf 1015,2 hPa 0,2 l/m 0 min 2 min 0 W/m 16,7 km/h (3 Bft)
14.07.2015 00:14 16,9 C 15,6 C 97 % 15 lf 1015,3 hPa 0,0 l/m 0 min 2 min 0 W/m 18,8 km/h (3 Bft)
14.07.2015 00:16 16,9 C 15,6 C 97 % 15 lf 1015,2 hPa 0,0 l/m 0 min 2 min 0 W/m 14,6 km/h (3 Bft)
14.07.2015 00:18 16,9 C 15,6 C 97 % 15 lf 1015,2 hPa 0,0 l/m 0 min 2 min 0 W/m 16,7 km/h (3 Bft)
14.07.2015 00:20 16,9 C 15,6 C 97 % 15 lf 1015,2 hPa 0,0 l/m 0 min 2 min 0 W/m 18,8 km/h (3 Bft)
14.07.2015 00:22 16,9 C 15,6 C 97 % 15 lf 1015,2 hPa 0,0 l/m 0 min 2 min 0 W/m 12,6 km/h (3 Bft)
14.07.2015 00:24 16,9 C 15,6 C 97 % 15 lf 1015,2 hPa 0,0 l/m 0 min 0 min 0 W/m 20,9 km/h (4 Bft)
14.07.2015 00:26 16,9 C 15,6 C 97 % 15 lf 1015,2 hPa 0,0 l/m 0 min 2 min 0 W/m 20,9 km/h (4 Bft)
14.07.2015 00:28 16,9 C 15,0 C 97 % 15 lf 1015,2 hPa 0,0 l/m 0 min 0 min 0 W/m 18,8 km/h (3 Bft)
14.07.2015 00:30 16,8 C 15,0 C 97 % 15 lf 1015,2 hPa 0,0 l/m 0 min 0 min 0 W/m 23,0 km/h (4 Bft)
14.07.2015 00:32 16,8 C 15,0 C 97 % 15 lf 1015,2 hPa 0,0 l/m 0 min 0 min 0 W/m 18,8 km/h (3 Bft)
14.07.2015 00:34 16,8 C 15,0 C 97 % 15 lf 1015,2 hPa 0,0 l/m 0 min 0 min 0 W/m 25,1 km/h (4 Bft)
14.07.2015 00:36 16,8 C 15,0 C 97 % 15 lf 1015,1 hPa 0,0 l/m 0 min 0 min 0 W/m 16,7 km/h (3 Bft)
14.07.2015 00:38 16,8 C 15,6 C 97 % 15 lf 1015,1 hPa 0,0 l/m 0 min 0 min 0 W/m 20,9 km/h (4 Bft)
14.07.2015 00:40 16,8 C 15,0 C 97 % 15 lf 1015,1 hPa 0,0 l/m 0 min 2 min 0 W/m 16,7 km/h (3 Bft)
14.07.2015 00:42 16,8 C 15,6 C 97 % 15 lf 1015,1 hPa 0,0 l/m 0 min 2 min 0 W/m 14,6 km/h (3 Bft)
14.07.2015 00:44 16,8 C 15,0 C 97 % 15 lf 1015,1 hPa 0,0 l/m 0 min 2 min 0 W/m 18,8 km/h (3 Bft)
14.07.2015 00:46 16,8 C 15,0 C 97 % 15 lf 1015,1 hPa 0,0 l/m 0 min 2 min 0 W/m 20,9 km/h (4 Bft)
14.07.2015 00:48 16,8 C 15,0 C 97 % 15 lf 1015,1 hPa 0,0 l/m 0 min 2 min 0 W/m 16,7 km/h (3 Bft)
14.07.2015 00:50 16,8 C 15,0 C 97 % 15 lf 1015,1 hPa 0,0 l/m 0 min 0 min 0 W/m 18,8 km/h (3 Bft)
14.07.2015 00:52 16,8 C 15,0 C 97 % 15 lf 1015,1 hPa 0,0 l/m 0 min 2 min 0 W/m 20,9 km/h (4 Bft)
14.07.2015 00:54 16,8 C 15,0 C 97 % 15 lf 1015,0 hPa 0,0 l/m 0 min 2 min 0 W/m 12,6 km/h (3 Bft)
14.07.2015 00:56 16,8 C 15,0 C 97 % 15 lf 1015,0 hPa 0,0 l/m 0 min 2 min 0 W/m 12,6 km/h (3 Bft)
14.07.2015 00:58 16,8 C 15,0 C 97 % 15 lf 1015,0 hPa 0,0 l/m 0 min 0 min 0 W/m 23,0 km/h (4 Bft)
14.07.2015 01:00 16,8 C 15,0 C 97 % 15 lf 1015,0 hPa 0,2 l/m 0 min 0 min 0 W/m 16,7 km/h (3 Bft)
14.07.2015 01:02 16,7 C 15,0 C 97 % 15 lf 1015,0 hPa 0,0 l/m 0 min 2 min 0 W/m 18,8 km/h (3 Bft)
14.07.2015 01:04 16,7 C 15,0 C 97 % 15 lf 1014,9 hPa 0,0 l/m 0 min 0 min 0 W/m 16,7 km/h (3 Bft)
14.07.2015 01:06 16,7 C 15,0 C 97 % 15 lf 1014,9 hPa 0,0 l/m 0 min 0 min 0 W/m 8,4 km/h (2 Bft)
14.07.2015 01:08 16,7 C 15,0 C 97 % 15 lf 1014,9 hPa 0,0 l/m 0 min 0 min 0 W/m 10,5 km/h (2 Bft)
14.07.2015 01:10 16,7 C 15,0 C 97 % 15 lf 1014,9 hPa 0,0 l/m 0 min 0 min 0 W/m 16,7 km/h (3 Bft)
14.07.2015 01:12 16,7 C 15,0 C 97 % 15 lf 1014,9 hPa 0,0 l/m 0 min 0 min 0 W/m 10,5 km/h (2 Bft)
14.07.2015 01:14 16,7 C 15,0 C 97 % 15 lf 1014,9 hPa 0,0 l/m 0 min 0 min 0 W/m 10,5 km/h (2 Bft)
14.07.2015 01:16 16,7 C 15,0 C 97 % 15 lf 1014,9 hPa 0,0 l/m 0 min 0 min 0 W/m 10,5 km/h (2 Bft)
14.07.2015 01:18 16,7 C 15,6 C 97 % 15 lf 1014,9 hPa 0,0 l/m 0 min 0 min 0 W/m 12,6 km/h (3 Bft)
14.07.2015 01:20 16,7 C 15,0 C 98 % 15 lf 1014,9 hPa 0,0 l/m 0 min 0 min 0 W/m 12,6 km/h (3 Bft)
14.07.2015 01:22 16,7 C 15,0 C 98 % 15 lf 1014,9 hPa 0,0 l/m 0 min 0 min 0 W/m 8,4 km/h (2 Bft)
14.07.2015 01:24 16,7 C 15,6 C 98 % 15 lf 1014,8 hPa 0,0 l/m 0 min 0 min 0 W/m 8,4 km/h (2 Bft)
14.07.2015 01:26 16,7 C 15,6 C 98 % 15 lf 1014,9 hPa 0,0 l/m 0 min 0 min 0 W/m 16,7 km/h (3 Bft)
14.07.2015 01:28 16,7 C 15,6 C 98 % 15 lf 1014,9 hPa 0,0 l/m 0 min 0 min 0 W/m 12,6 km/h (3 Bft)
14.07.2015 01:30 16,7 C 15,0 C 98 % 15 lf 1014,9 hPa 0,0 l/m 0 min 0 min 0 W/m 20,9 km/h (4 Bft)
14.07.2015 01:32 16,7 C 15,0 C 98 % 15 lf 1014,9 hPa 0,0 l/m 0 min 0 min 0 W/m 14,6 km/h (3 Bft)
14.07.2015 01:34 16,7 C 15,6 C 98 % 15 lf 1014,8 hPa 0,0 l/m 0 min 0 min 0 W/m 16,7 km/h (3 Bft)
14.07.2015 01:36 16,7 C 15,6 C 98 % 15 lf 1014,8 hPa 0,0 l/m 0 min 0 min 0 W/m 14,6 km/h (3 Bft)
14.07.2015 01:38 16,7 C 15,6 C 98 % 15 lf 1014,8 hPa 0,0 l/m 0 min 0 min 0 W/m 16,7 km/h (3 Bft)
14.07.2015 01:40 16,7 C 15,6 C 98 % 15 lf 1014,7 hPa 0,0 l/m 0 min 0 min 0 W/m 12,6 km/h (3 Bft)
14.07.2015 01:42 16,7 C 15,6 C 98 % 15 lf 1014,7 hPa 0,0 l/m 0 min 0 min 0 W/m 12,6 km/h (3 Bft)
14.07.2015 01:44 16,7 C 15,0 C 98 % 15 lf 1014,7 hPa 0,0 l/m 0 min 0 min 0 W/m 14,6 km/h (3 Bft)
14.07.2015 01:46 16,7 C 15,6 C 98 % 15 lf 1014,7 hPa 0,0 l/m 0 min 0 min 0 W/m 18,8 km/h (3 Bft)
14.07.2015 01:48 16,7 C 15,6 C 98 % 15 lf 1014,7 hPa 0,0 l/m 0 min 0 min 0 W/m 18,8 km/h (3 Bft)
14.07.2015 01:50 16,7 C 15,6 C 98 % 15 lf 1014,7 hPa 0,0 l/m 0 min 0 min 0 W/m 20,9 km/h (4 Bft)
14.07.2015 01:52 16,7 C 15,6 C 98 % 15 lf 1014,7 hPa 0,0 l/m 0 min 0 min 0 W/m 23,0 km/h (4 Bft)
14.07.2015 01:54 16,7 C 15,0 C 98 % 15 lf 1014,7 hPa 0,0 l/m 0 min 0 min 0 W/m 16,7 km/h (3 Bft)
14.07.2015 01:56 16,7 C 15,0 C 98 % 15 lf 1014,6 hPa 0,0 l/m 0 min 0 min 0 W/m 23,0 km/h (4 Bft)
14.07.2015 01:58 16,7 C 15,6 C 98 % 15 lf 1014,6 hPa 0,0 l/m 0 min 0 min 0 W/m 14,6 km/h (3 Bft)
14.07.2015 02:00 16,7 C 15,6 C 98 % 15 lf 1014,7 hPa 0,0 l/m 0 min 0 min 0 W/m 16,7 km/h (3 Bft)
14.07.2015 02:02 16,7 C 15,6 C 98 % 15 lf 1014,6 hPa 0,0 l/m 0 min 0 min 0 W/m 14,6 km/h (3 Bft)
14.07.2015 02:04 16,7 C 15,6 C 98 % 15 lf 1014,6 hPa 0,0 l/m 0 min 0 min 0 W/m 10,5 km/h (2 Bft)
14.07.2015 02:06 16,7 C 15,6 C 98 % 15 lf 1014,6 hPa 0,0 l/m 0 min 0 min 0 W/m 16,7 km/h (3 Bft)
14.07.2015 02:08 16,7 C 15,6 C 98 % 15 lf 1014,6 hPa 0,0 l/m 0 min 0 min 0 W/m 18,8 km/h (3 Bft)
14.07.2015 02:10 16,8 C 15,6 C 98 % 15 lf 1014,6 hPa 0,0 l/m 0 min 0 min 0 W/m 14,6 km/h (3 Bft)
14.07.2015 02:12 16,8 C 15,6 C 98 % 15 lf 1014,6 hPa 0,0 l/m 0 min 0 min 0 W/m 16,7 km/h (3 Bft)
14.07.2015 02:14 16,8 C 15,6 C 98 % 15 lf 1014,6 hPa 0,0 l/m 0 min 0 min 0 W/m 16,7 km/h (3 Bft)
14.07.2015 02:16 16,8 C 15,6 C 98 % 15 lf 1014,5 hPa 0,0 l/m 0 min 0 min 0 W/m 20,9 km/h (4 Bft)
14.07.2015 02:18 16,8 C 15,6 C 98 % 15 lf 1014,6 hPa 0,0 l/m 0 min 0 min 0 W/m 16,7 km/h (3 Bft)
14.07.2015 02:20 16,8 C 15,6 C 98 % 15 lf 1014,5 hPa 0,0 l/m 0 min 0 min 0 W/m 14,6 km/h (3 Bft)
14.07.2015 02:22 16,8 C 15,6 C 98 % 15 lf 1014,6 hPa 0,0 l/m 0 min 0 min 0 W/m 18,8 km/h (3 Bft)
14.07.2015 02:24 16,8 C 15,6 C 98 % 15 lf 1014,5 hPa 0,0 l/m 0 min 0 min 0 W/m 16,7 km/h (3 Bft)
14.07.2015 02:26 16,8 C 15,6 C 98 % 15 lf 1014,5 hPa 0,0 l/m 0 min 0 min 0 W/m 20,9 km/h (4 Bft)
14.07.2015 02:28 16,8 C 15,6 C 98 % 15 lf 1014,5 hPa 0,0 l/m 0 min 0 min 0 W/m 14,6 km/h (3 Bft)
14.07.2015 02:30 16,8 C 15,6 C 98 % 15 lf 1014,5 hPa 0,0 l/m 0 min 0 min 0 W/m 14,6 km/h (3 Bft)
14.07.2015 02:32 16,8 C 15,6 C 98 % 15 lf 1014,5 hPa 0,0 l/m 0 min 0 min 0 W/m 12,6 km/h (3 Bft)
14.07.2015 02:34 16,8 C 15,6 C 98 % 15 lf 1014,5 hPa 0,0 l/m 0 min 0 min 0 W/m 23,0 km/h (4 Bft)
14.07.2015 02:36 16,8 C 15,6 C 98 % 15 lf 1014,5 hPa 0,0 l/m 0 min 0 min 0 W/m 25,1 km/h (4 Bft)
14.07.2015 02:38 16,8 C 15,6 C 98 % 15 lf 1014,5 hPa 0,0 l/m 0 min 0 min 0 W/m 12,6 km/h (3 Bft)
14.07.2015 02:40 16,8 C 15,6 C 98 % 15 lf 1014,5 hPa 0,0 l/m 0 min 0 min 0 W/m 18,8 km/h (3 Bft)
14.07.2015 02:42 16,8 C 15,6 C 98 % 15 lf 1014,5 hPa 0,0 l/m 0 min 0 min 0 W/m 16,7 km/h (3 Bft)
14.07.2015 02:44 16,8 C 15,6 C 98 % 15 lf 1014,5 hPa 0,0 l/m 0 min 0 min 0 W/m 18,8 km/h (3 Bft)
14.07.2015 02:46 16,8 C 15,6 C 98 % 15 lf 1014,5 hPa 0,0 l/m 0 min 2 min 0 W/m 23,0 km/h (4 Bft)
14.07.2015 02:48 16,8 C 15,6 C 98 % 15 lf 1014,5 hPa 0,0 l/m 0 min 0 min 0 W/m 25,1 km/h (4 Bft)
14.07.2015 02:50 16,8 C 15,6 C 98 % 15 lf 1014,5 hPa 0,0 l/m 0 min 0 min 0 W/m 20,9 km/h (4 Bft)
14.07.2015 02:52 16,8 C 15,6 C 98 % 15 lf 1014,5 hPa 0,0 l/m 0 min 0 min 0 W/m 18,8 km/h (3 Bft)
14.07.2015 02:54 16,8 C 15,6 C 98 % 15 lf 1014,6 hPa 0,0 l/m 0 min 0 min 0 W/m 14,6 km/h (3 Bft)
14.07.2015 02:56 16,8 C 15,6 C 98 % 15 lf 1014,5 hPa 0,0 l/m 0 min 0 min 0 W/m 18,8 km/h (3 Bft)
14.07.2015 02:58 16,8 C 15,6 C 98 % 15 lf 1014,5 hPa 0,0 l/m 0 min 0 min 0 W/m 20,9 km/h (4 Bft)
14.07.2015 03:00 16,8 C 15,6 C 98 % 15 lf 1014,5 hPa 0,0 l/m 0 min 0 min 0 W/m 16,7 km/h (3 Bft)
14.07.2015 03:02 16,8 C 15,6 C 98 % 15 lf 1014,5 hPa 0,0 l/m 0 min 0 min 0 W/m 18,8 km/h (3 Bft)
14.07.2015 03:04 16,8 C 15,6 C 98 % 15 lf 1014,5 hPa 0,0 l/m 0 min 0 min 0 W/m 18,8 km/h (3 Bft)
14.07.2015 03:06 16,8 C 15,6 C 98 % 15 lf 1014,4 hPa 0,0 l/m 0 min 0 min 0 W/m 16,7 km/h (3 Bft)
14.07.2015 03:08 16,8 C 15,6 C 98 % 15 lf 1014,5 hPa 0,0 l/m 0 min 0 min 0 W/m 14,6 km/h (3 Bft)
14.07.2015 03:10 16,8 C 15,6 C 98 % 15 lf 1014,5 hPa 0,0 l/m 0 min 0 min 0 W/m 14,6 km/h (3 Bft)
14.07.2015 03:12 16,8 C 15,6 C 98 % 15 lf 1014,5 hPa 0,0 l/m 0 min 0 min 0 W/m 14,6 km/h (3 Bft)
14.07.2015 03:14 16,8 C 15,6 C 98 % 15 lf 1014,4 hPa 0,0 l/m 0 min 0 min 0 W/m 18,8 km/h (3 Bft)
14.07.2015 03:16 16,8 C 15,6 C 98 % 15 lf 1014,4 hPa 0,0 l/m 0 min 0 min 0 W/m 14,6 km/h (3 Bft)
14.07.2015 03:18 16,8 C 15,6 C 98 % 15 lf 1014,4 hPa 0,0 l/m 0 min 0 min 0 W/m 16,7 km/h (3 Bft)
14.07.2015 03:20 16,8 C 15,6 C 98 % 15 lf 1014,4 hPa 0,0 l/m 0 min 0 min 0 W/m 14,6 km/h (3 Bft)
14.07.2015 03:22 16,8 C 15,6 C 98 % 15 lf 1014,5 hPa 0,0 l/m 0 min 0 min 0 W/m 16,7 km/h (3 Bft)
14.07.2015 03:24 16,8 C 15,6 C 98 % 15 lf 1014,4 hPa 0,0 l/m 0 min 0 min 0 W/m 14,6 km/h (3 Bft)
14.07.2015 03:26 16,8 C 15,6 C 98 % 15 lf 1014,3 hPa 0,0 l/m 0 min 0 min 0 W/m 14,6 km/h (3 Bft)
14.07.2015 03:28 16,8 C 15,6 C 98 % 15 lf 1014,3 hPa 0,0 l/m 0 min 0 min 0 W/m 18,8 km/h (3 Bft)
14.07.2015 03:30 16,8 C 15,6 C 98 % 15 lf 1014,2 hPa 0,0 l/m 0 min 0 min 0 W/m 18,8 km/h (3 Bft)
14.07.2015 03:32 16,8 C 15,6 C 98 % 15 lf 1014,2 hPa 0,0 l/m 0 min 0 min 0 W/m 14,6 km/h (3 Bft)
14.07.2015 03:34 16,8 C 15,6 C 98 % 15 lf 1014,2 hPa 0,0 l/m 0 min 0 min 0 W/m 18,8 km/h (3 Bft)
14.07.2015 03:36 16,8 C 15,0 C 98 % 15 lf 1014,1 hPa 0,0 l/m 0 min 0 min 0 W/m 18,8 km/h (3 Bft)
14.07.2015 03:38 16,8 C 15,6 C 98 % 15 lf 1014,1 hPa 0,0 l/m 0 min 0 min 0 W/m 10,5 km/h (2 Bft)
14.07.2015 03:40 16,8 C 15,6 C 98 % 15 lf 1014,1 hPa 0,0 l/m 0 min 0 min 0 W/m 23,0 km/h (4 Bft)
14.07.2015 03:42 16,8 C 15,6 C 98 % 15 lf 1014,0 hPa 0,0 l/m 0 min 0 min 0 W/m 23,0 km/h (4 Bft)
14.07.2015 03:44 16,8 C 15,6 C 98 % 15 lf 1014,0 hPa 0,0 l/m 0 min 0 min 0 W/m 16,7 km/h (3 Bft)
14.07.2015 03:46 16,8 C 15,6 C 98 % 15 lf 1014,0 hPa 0,0 l/m 0 min 0 min 0 W/m 18,8 km/h (3 Bft)
14.07.2015 03:48 16,8 C 15,6 C 98 % 15 lf 1014,1 hPa 0,0 l/m 0 min 0 min 0 W/m 14,6 km/h (3 Bft)
14.07.2015 03:50 16,8 C 15,6 C 98 % 15 lf 1014,2 hPa 0,0 l/m 0 min 0 min 0 W/m 14,6 km/h (3 Bft)
14.07.2015 03:52 16,8 C 15,6 C 98 % 15 lf 1014,2 hPa 0,0 l/m 0 min 0 min 0 W/m 14,6 km/h (3 Bft)
14.07.2015 03:54 16,8 C 15,6 C 98 % 15 lf 1014,2 hPa 0,0 l/m 0 min 0 min 0 W/m 16,7 km/h (3 Bft)
14.07.2015 03:56 16,8 C 15,6 C 98 % 15 lf 1014,2 hPa 0,0 l/m 0 min 0 min 0 W/m 18,8 km/h (3 Bft)
14.07.2015 03:58 16,8 C 15,6 C 98 % 15 lf 1014,2 hPa 0,0 l/m 0 min 0 min 0 W/m 14,6 km/h (3 Bft)
14.07.2015 04:00 16,8 C 15,6 C 98 % 15 lf 1014,2 hPa 0,0 l/m 0 min 0 min 0 W/m 16,7 km/h (3 Bft)
14.07.2015 04:05 16,8 C 15,6 C 98 % 15 lf 1014,2 hPa 0,0 l/m 0 min 0 min 0 W/m 18,8 km/h (3 Bft)
14.07.2015 04:06 16,8 C 15,6 C 98 % 15 lf 1014,2 hPa 0,0 l/m 0 min 0 min 0 W/m 14,6 km/h (3 Bft)
14.07.2015 04:08 16,8 C 15,6 C 98 % 15 lf 1014,2 hPa 0,0 l/m 0 min 0 min 0 W/m 16,7 km/h (3 Bft)
14.07.2015 04:10 16,8 C 15,6 C 98 % 15 lf 1014,1 hPa 0,0 l/m 0 min 0 min 0 W/m 10,5 km/h (2 Bft)
14.07.2015 04:12 16,8 C 15,6 C 98 % 15 lf 1014,1 hPa 0,0 l/m 0 min 0 min 0 W/m 14,6 km/h (3 Bft)
14.07.2015 04:14 16,8 C 15,6 C 98 % 15 lf 1014,1 hPa 0,0 l/m 0 min 0 min 0 W/m 16,7 km/h (3 Bft)
14.07.2015 04:16 16,8 C 15,6 C 98 % 15 lf 1014,1 hPa 0,0 l/m 0 min 0 min 0 W/m 18,8 km/h (3 Bft)
14.07.2015 04:18 16,8 C 15,6 C 98 % 15 lf 1014,2 hPa 0,0 l/m 0 min 0 min 0 W/m 20,9 km/h (4 Bft)
14.07.2015 04:20 16,8 C 15,6 C 98 % 15 lf 1014,1 hPa 0,0 l/m 0 min 0 min 0 W/m 14,6 km/h (3 Bft)
14.07.2015 04:22 16,8 C 15,6 C 98 % 15 lf 1014,1 hPa 0,0 l/m 0 min 0 min 0 W/m 14,6 km/h (3 Bft)
14.07.2015 04:24 16,8 C 15,6 C 98 % 15 lf 1014,1 hPa 0,0 l/m 0 min 0 min 0 W/m 18,8 km/h (3 Bft)
14.07.2015 04:26 16,8 C 15,6 C 98 % 15 lf 1014,0 hPa 0,0 l/m 0 min 0 min 0 W/m 20,9 km/h (4 Bft)
14.07.2015 04:28 16,8 C 15,6 C 98 % 15 lf 1014,1 hPa 0,0 l/m 0 min 0 min 0 W/m 18,8 km/h (3 Bft)
14.07.2015 04:30 16,8 C 15,6 C 98 % 15 lf 1014,1 hPa 0,0 l/m 0 min 0 min 0 W/m 27,2 km/h (4 Bft)
14.07.2015 04:32 16,8 C 15,6 C 98 % 15 lf 1014,1 hPa 0,0 l/m 0 min 0 min 0 W/m 14,6 km/h (3 Bft)
14.07.2015 04:34 16,8 C 15,6 C 98 % 15 lf 1014,0 hPa 0,0 l/m 0 min 0 min 0 W/m 20,9 km/h (4 Bft)
14.07.2015 04:36 16,8 C 15,6 C 98 % 15 lf 1014,0 hPa 0,0 l/m 0 min 0 min 0 W/m 18,8 km/h (3 Bft)
14.07.2015 04:38 16,8 C 15,6 C 98 % 15 lf 1014,0 hPa 0,0 l/m 0 min 0 min 0 W/m 23,0 km/h (4 Bft)
14.07.2015 04:40 16,8 C 15,6 C 98 % 15 lf 1014,0 hPa 0,0 l/m 0 min 0 min 0 W/m 20,9 km/h (4 Bft)
14.07.2015 04:42 16,8 C 15,6 C 98 % 15 lf 1014,1 hPa 0,0 l/m 0 min 0 min 0 W/m 25,1 km/h (4 Bft)
14.07.2015 04:44 16,8 C 15,6 C 98 % 15 lf 1014,1 hPa 0,0 l/m 0 min 0 min 0 W/m 18,8 km/h (3 Bft)
14.07.2015 04:46 16,8 C 15,6 C 98 % 15 lf 1014,1 hPa 0,0 l/m 0 min 0 min 0 W/m 18,8 km/h (3 Bft)
14.07.2015 04:48 16,8 C 15,6 C 98 % 15 lf 1014,2 hPa 0,0 l/m 0 min 0 min 0 W/m 14,6 km/h (3 Bft)
14.07.2015 04:50 16,8 C 15,6 C 98 % 15 lf 1014,2 hPa 0,0 l/m 0 min 0 min 0 W/m 14,6 km/h (3 Bft)
14.07.2015 04:52 16,8 C 15,6 C 98 % 15 lf 1014,1 hPa 0,0 l/m 0 min 0 min 0 W/m 27,2 km/h (4 Bft)
14.07.2015 04:54 16,8 C 15,6 C 98 % 15 lf 1014,1 hPa 0,0 l/m 0 min 0 min 0 W/m 23,0 km/h (4 Bft)
14.07.2015 04:56 16,8 C 15,6 C 98 % 15 lf 1014,1 hPa 0,0 l/m 0 min 0 min 0 W/m 16,7 km/h (3 Bft)
14.07.2015 04:58 16,8 C 15,6 C 98 % 15 lf 1014,1 hPa 0,0 l/m 0 min 0 min 0 W/m 18,8 km/h (3 Bft)
14.07.2015 05:00 16,8 C 15,6 C 98 % 15 lf 1014,1 hPa 0,0 l/m 0 min 0 min 0 W/m 18,8 km/h (3 Bft)
14.07.2015 05:02 16,8 C 15,6 C 98 % 15 lf 1014,1 hPa 0,0 l/m 0 min 0 min 0 W/m 20,9 km/h (4 Bft)
14.07.2015 05:04 16,8 C 15,6 C 98 % 15 lf 1014,1 hPa 0,0 l/m 0 min 0 min 0 W/m 16,7 km/h (3 Bft)
14.07.2015 05:06 16,8 C 15,6 C 98 % 15 lf 1014,1 hPa 0,0 l/m 0 min 0 min 0 W/m 18,8 km/h (3 Bft)
14.07.2015 05:08 16,8 C 15,6 C 98 % 15 lf 1014,1 hPa 0,0 l/m 0 min 0 min 0 W/m 18,8 km/h (3 Bft)
14.07.2015 05:10 16,8 C 15,6 C 98 % 15 lf 1014,0 hPa 0,0 l/m 0 min 2 min 0 W/m 20,9 km/h (4 Bft)
14.07.2015 05:12 16,8 C 15,6 C 98 % 15 lf 1014,1 hPa 0,0 l/m 0 min 0 min 0 W/m 18,8 km/h (3 Bft)
14.07.2015 05:14 16,8 C 15,6 C 98 % 15 lf 1014,2 hPa 0,0 l/m 0 min 0 min 0 W/m 16,7 km/h (3 Bft)
14.07.2015 05:16 16,8 C 15,6 C 98 % 15 lf 1014,1 hPa 0,0 l/m 0 min 0 min 0 W/m 14,6 km/h (3 Bft)
14.07.2015 05:18 16,8 C 15,6 C 98 % 15 lf 1014,1 hPa 0,0 l/m 0 min 0 min 0 W/m 12,6 km/h (3 Bft)
14.07.2015 05:20 16,8 C 15,6 C 98 % 15 lf 1014,1 hPa 0,0 l/m 0 min 2 min 0 W/m 20,9 km/h (4 Bft)
14.07.2015 05:22 16,8 C 15,6 C 98 % 15 lf 1014,1 hPa 0,0 l/m 0 min 2 min 0 W/m 14,6 km/h (3 Bft)
14.07.2015 05:23 16,8 C 15,6 C 98 % 15 lf 1014,2 hPa 0,0 l/m 0 min 0 min 0 W/m 14,6 km/h (3 Bft)
14.07.2015 05:24 16,8 C 15,6 C 98 % 15 lf 1014,1 hPa 0,0 l/m 0 min 0 min 0 W/m 16,7 km/h (3 Bft)
14.07.2015 05:25 16,8 C 15,6 C 98 % 15 lf 1014,1 hPa 0,0 l/m 0 min 0 min 0 W/m 16,7 km/h (3 Bft)
14.07.2015 05:26 16,8 C 15,6 C 98 % 15 lf 1014,1 hPa 0,0 l/m 0 min 0 min 0 W/m 10,5 km/h (2 Bft)
14.07.2015 05:27 16,8 C 15,6 C 98 % 15 lf 1014,1 hPa 0,0 l/m 0 min 0 min 0 W/m 16,7 km/h (3 Bft)
14.07.2015 05:28 16,8 C 15,6 C 98 % 15 lf 1014,0 hPa 0,0 l/m 0 min 0 min 0 W/m 18,8 km/h (3 Bft)
14.07.2015 05:29 16,8 C 15,6 C 98 % 15 lf 1014,1 hPa 0,0 l/m 0 min 0 min 0 W/m 12,6 km/h (3 Bft)
14.07.2015 05:30 16,8 C 15,6 C 98 % 15 lf 1014,1 hPa 0,0 l/m 0 min 0 min 0 W/m 18,8 km/h (3 Bft)
14.07.2015 05:31 16,8 C 15,6 C 98 % 15 lf 1014,2 hPa 0,0 l/m 0 min 0 min 0 W/m 14,6 km/h (3 Bft)
14.07.2015 05:32 16,8 C 15,6 C 98 % 15 lf 1014,1 hPa 0,0 l/m 0 min 1 min 0 W/m 16,7 km/h (3 Bft)
14.07.2015 05:33 16,8 C 15,6 C 98 % 15 lf 1014,1 hPa 0,0 l/m 0 min 1 min 0 W/m 10,5 km/h (2 Bft)
14.07.2015 05:34 16,8 C 15,6 C 98 % 15 lf 1014,1 hPa 0,0 l/m 0 min 1 min 0 W/m 16,7 km/h (3 Bft)
14.07.2015 05:35 16,8 C 15,6 C 98 % 15 lf 1014,0 hPa 0,0 l/m 0 min 1 min 0 W/m 12,6 km/h (3 Bft)
14.07.2015 05:36 16,8 C 15,6 C 98 % 15 lf 1014,0 hPa 0,0 l/m 0 min 1 min 0 W/m 12,6 km/h (3 Bft)
14.07.2015 05:37 16,8 C 15,6 C 98 % 15 lf 1014,0 hPa 0,0 l/m 0 min 0 min 0 W/m 14,6 km/h (3 Bft)
14.07.2015 05:38 16,8 C 15,6 C 98 % 15 lf 1014,0 hPa 0,0 l/m 0 min 1 min 0 W/m 12,6 km/h (3 Bft)
14.07.2015 05:39 16,8 C 15,6 C 98 % 15 lf 1014,0 hPa 0,0 l/m 0 min 0 min 0 W/m 20,9 km/h (4 Bft)
14.07.2015 05:40 16,8 C 15,6 C 98 % 15 lf 1014,0 hPa 0,0 l/m 0 min 0 min 0 W/m 14,6 km/h (3 Bft)
14.07.2015 05:41 16,8 C 15,6 C 98 % 15 lf 1014,0 hPa 0,0 l/m 0 min 0 min 0 W/m 14,6 km/h (3 Bft)
14.07.2015 05:42 16,8 C 15,6 C 98 % 15 lf 1014,0 hPa 0,0 l/m 0 min 1 min 3 W/m 14,6 km/h (3 Bft)
14.07.2015 05:43 16,8 C 15,6 C 98 % 15 lf 1013,9 hPa 0,0 l/m 0 min 1 min 5 W/m 12,6 km/h (3 Bft)
14.07.2015 05:44 16,8 C 15,6 C 98 % 15 lf 1014,0 hPa 0,0 l/m 0 min 1 min 5 W/m 12,6 km/h (3 Bft)
14.07.2015 05:45 16,8 C 15,6 C 98 % 15 lf 1014,0 hPa 0,0 l/m 0 min 1 min 5 W/m 14,6 km/h (3 Bft)
14.07.2015 05:46 16,8 C 15,6 C 98 % 15 lf 1014,0 hPa 0,0 l/m 0 min 0 min 5 W/m 12,6 km/h (3 Bft)
14.07.2015 05:47 16,8 C 15,6 C 98 % 15 lf 1014,0 hPa 0,0 l/m 0 min 0 min 5 W/m 16,7 km/h (3 Bft)
14.07.2015 05:48 16,8 C 15,6 C 98 % 15 lf 1014,0 hPa 0,0 l/m 0 min 0 min 5 W/m 16,7 km/h (3 Bft)
14.07.2015 05:49 16,8 C 15,6 C 98 % 15 lf 1014,0 hPa 0,0 l/m 0 min 0 min 7 W/m 18,8 km/h (3 Bft)
14.07.2015 05:50 16,8 C 15,6 C 98 % 15 lf 1014,0 hPa 0,0 l/m 0 min 0 min 7 W/m 12,6 km/h (3 Bft)
14.07.2015 05:51 16,8 C 15,6 C 98 % 15 lf 1014,0 hPa 0,0 l/m 0 min 0 min 9 W/m 16,7 km/h (3 Bft)
14.07.2015 05:52 16,8 C 15,6 C 98 % 15 lf 1014,0 hPa 0,0 l/m 0 min 0 min 9 W/m 14,6 km/h (3 Bft)
14.07.2015 05:53 16,8 C 15,6 C 98 % 15 lf 1013,9 hPa 0,0 l/m 0 min 0 min 11 W/m 12,6 km/h (3 Bft)
14.07.2015 05:56 16,8 C 15,6 C 98 % 15 lf 1013,9 hPa 0,0 l/m 0 min 0 min 12 W/m 14,6 km/h (3 Bft)
14.07.2015 05:58 16,8 C 15,6 C 98 % 15 lf 1013,9 hPa 0,2 l/m 0 min 0 min 12 W/m 14,6 km/h (3 Bft)
14.07.2015 06:00 16,8 C 15,6 C 98 % 15 lf 1013,9 hPa 0,0 l/m 0 min 0 min 10 W/m 14,6 km/h (3 Bft)
14.07.2015 06:02 16,8 C 15,6 C 98 % 15 lf 1014,0 hPa 0,0 l/m 0 min 0 min 7 W/m 18,8 km/h (3 Bft)
14.07.2015 06:05 16,8 C 15,6 C 98 % 15 lf 1014,1 hPa 0,0 l/m 0 min 0 min 7 W/m 14,6 km/h (3 Bft)
14.07.2015 06:08 16,8 C 15,6 C 98 % 15 lf 1014,0 hPa 0,0 l/m 0 min 0 min 7 W/m 12,6 km/h (3 Bft)
14.07.2015 06:10 16,8 C 15,6 C 98 % 15 lf 1014,1 hPa 0,0 l/m 0 min 2 min 7 W/m 12,6 km/h (3 Bft)
14.07.2015 06:12 16,8 C 15,6 C 98 % 15 lf 1014,0 hPa 0,0 l/m 0 min 0 min 7 W/m 18,8 km/h (3 Bft)
14.07.2015 06:14 16,8 C 15,6 C 98 % 15 lf 1014,1 hPa 0,0 l/m 0 min 0 min 7 W/m 18,8 km/h (3 Bft)
14.07.2015 06:16 16,8 C 15,6 C 98 % 15 lf 1014,1 hPa 0,0 l/m 0 min 0 min 7 W/m 10,5 km/h (2 Bft)
14.07.2015 06:18 16,8 C 15,6 C 98 % 15 lf 1014,1 hPa 0,0 l/m 0 min 0 min 8 W/m 16,7 km/h (3 Bft)
14.07.2015 06:20 16,8 C 15,6 C 98 % 15 lf 1014,1 hPa 0,0 l/m 0 min 2 min 8 W/m 18,8 km/h (3 Bft)
14.07.2015 06:22 16,8 C 15,6 C 98 % 15 lf 1014,2 hPa 0,0 l/m 0 min 2 min 9 W/m 27,2 km/h (4 Bft)
14.07.2015 06:24 16,8 C 15,6 C 98 % 15 lf 1014,2 hPa 0,0 l/m 0 min 0 min 12 W/m 20,9 km/h (4 Bft)
14.07.2015 06:26 16,8 C 15,6 C 98 % 15 lf 1014,0 hPa 0,0 l/m 0 min 0 min 16 W/m 20,9 km/h (4 Bft)
14.07.2015 06:28 16,9 C 15,6 C 98 % 15 lf 1014,0 hPa 0,0 l/m 0 min 2 min 18 W/m 16,7 km/h (3 Bft)
14.07.2015 06:30 16,8 C 15,6 C 98 % 15 lf 1014,0 hPa 0,0 l/m 0 min 0 min 20 W/m 18,8 km/h (3 Bft)
14.07.2015 06:32 16,9 C 15,6 C 98 % 15 lf 1014,1 hPa 0,0 l/m 0 min 0 min 19 W/m 18,8 km/h (3 Bft)
14.07.2015 06:34 16,9 C 15,6 C 98 % 15 lf 1014,2 hPa 0,0 l/m 0 min 2 min 19 W/m 20,9 km/h (4 Bft)
14.07.2015 06:36 16,9 C 15,6 C 98 % 15 lf 1014,2 hPa 0,0 l/m 0 min 0 min 17 W/m 23,0 km/h (4 Bft)
14.07.2015 06:38 16,9 C 15,6 C 98 % 15 lf 1014,3 hPa 0,0 l/m 0 min 0 min 16 W/m 23,0 km/h (4 Bft)
14.07.2015 06:40 16,9 C 15,6 C 98 % 15 lf 1014,3 hPa 0,0 l/m 0 min 2 min 16 W/m 20,9 km/h (4 Bft)
14.07.2015 06:42 16,9 C 15,6 C 98 % 15 lf 1014,3 hPa 0,0 l/m 0 min 0 min 14 W/m 18,8 km/h (3 Bft)
14.07.2015 06:44 16,9 C 15,6 C 98 % 15 lf 1014,3 hPa 0,0 l/m 0 min 0 min 14 W/m 16,7 km/h (3 Bft)
14.07.2015 06:46 16,9 C 15,6 C 98 % 15 lf 1014,3 hPa 0,0 l/m 0 min 0 min 15 W/m 14,6 km/h (3 Bft)
14.07.2015 06:48 16,9 C 15,6 C 98 % 15 lf 1014,3 hPa 0,0 l/m 0 min 0 min 16 W/m 18,8 km/h (3 Bft)
14.07.2015 06:50 16,9 C 15,6 C 98 % 15 lf 1014,4 hPa 0,0 l/m 0 min 0 min 18 W/m 18,8 km/h (3 Bft)
14.07.2015 06:52 16,9 C 15,6 C 98 % 15 lf 1014,3 hPa 0,0 l/m 0 min 0 min 21 W/m 18,8 km/h (3 Bft)
14.07.2015 06:54 16,9 C 15,6 C 98 % 15 lf 1014,3 hPa 0,0 l/m 0 min 2 min 25 W/m 27,2 km/h (4 Bft)
14.07.2015 06:56 16,9 C 15,6 C 98 % 15 lf 1014,4 hPa 0,0 l/m 0 min 0 min 24 W/m 20,9 km/h (4 Bft)
14.07.2015 06:58 16,9 C 15,6 C 98 % 15 lf 1014,4 hPa 0,0 l/m 0 min 0 min 25 W/m 18,8 km/h (3 Bft)
14.07.2015 07:00 16,9 C 15,6 C 98 % 15 lf 1014,4 hPa 0,0 l/m 0 min 0 min 23 W/m 18,8 km/h (3 Bft)
14.07.2015 07:02 16,9 C 15,6 C 98 % 15 lf 1014,4 hPa 0,0 l/m 0 min 0 min 23 W/m 18,8 km/h (3 Bft)
14.07.2015 07:04 16,9 C 15,6 C 98 % 15 lf 1014,3 hPa 0,0 l/m 0 min 0 min 25 W/m 20,9 km/h (4 Bft)
14.07.2015 07:06 16,9 C 15,6 C 98 % 15 lf 1014,4 hPa 0,0 l/m 0 min 0 min 25 W/m 12,6 km/h (3 Bft)
14.07.2015 07:08 16,9 C 15,6 C 98 % 15 lf 1014,4 hPa 0,0 l/m 0 min 0 min 26 W/m 18,8 km/h (3 Bft)
14.07.2015 07:10 16,9 C 15,6 C 98 % 15 lf 1014,4 hPa 0,0 l/m 0 min 0 min 28 W/m 18,8 km/h (3 Bft)
14.07.2015 07:12 16,9 C 15,6 C 98 % 15 lf 1014,4 hPa 0,0 l/m 0 min 0 min 26 W/m 16,7 km/h (3 Bft)
14.07.2015 07:14 17,0 C 15,6 C 98 % 15 lf 1014,4 hPa 0,0 l/m 0 min 0 min 28 W/m 25,1 km/h (4 Bft)
14.07.2015 07:16 17,0 C 15,6 C 98 % 15 lf 1014,4 hPa 0,0 l/m 0 min 0 min 32 W/m 23,0 km/h (4 Bft)
14.07.2015 07:18 16,9 C 15,6 C 98 % 15 lf 1014,4 hPa 0,0 l/m 0 min 0 min 34 W/m 29,3 km/h (5 Bft)
14.07.2015 07:20 17,0 C 15,6 C 98 % 15 lf 1014,4 hPa 0,0 l/m 0 min 0 min 33 W/m 20,9 km/h (4 Bft)
14.07.2015 07:22 17,0 C 15,6 C 98 % 15 lf 1014,4 hPa 0,0 l/m 0 min 0 min 35 W/m 27,2 km/h (4 Bft)
14.07.2015 07:24 17,0 C 15,6 C 98 % 15 lf 1014,4 hPa 0,0 l/m 0 min 0 min 36 W/m 29,3 km/h (5 Bft)
14.07.2015 07:26 17,0 C 15,6 C 98 % 15 lf 1014,4 hPa 0,0 l/m 0 min 0 min 35 W/m 27,2 km/h (4 Bft)
14.07.2015 07:28 17,0 C 15,6 C 98 % 15 lf 1014,4 hPa 0,0 l/m 0 min 0 min 37 W/m 18,8 km/h (3 Bft)
14.07.2015 07:30 17,0 C 15,6 C 98 % 15 lf 1014,4 hPa 0,0 l/m 0 min 0 min 35 W/m 18,8 km/h (3 Bft)
14.07.2015 07:32 17,1 C 15,6 C 98 % 15 lf 1014,5 hPa 0,0 l/m 0 min 0 min 40 W/m 20,9 km/h (4 Bft)
14.07.2015 07:34 17,1 C 15,6 C 98 % 15 lf 1014,4 hPa 0,0 l/m 0 min 2 min 53 W/m 16,7 km/h (3 Bft)
14.07.2015 07:36 17,1 C 15,6 C 98 % 15 lf 1014,4 hPa 0,0 l/m 0 min 0 min 77 W/m 18,8 km/h (3 Bft)
14.07.2015 07:38 17,1 C 16,1 C 98 % 15 lf 1014,5 hPa 0,0 l/m 0 min 0 min 74 W/m 14,6 km/h (3 Bft)
14.07.2015 07:40 17,1 C 16,1 C 98 % 15 lf 1014,4 hPa 0,0 l/m 0 min 0 min 53 W/m 12,6 km/h (3 Bft)
14.07.2015 07:42 17,1 C 16,1 C 98 % 15 lf 1014,5 hPa 0,0 l/m 0 min 0 min 52 W/m 12,6 km/h (3 Bft)
14.07.2015 07:44 17,2 C 16,1 C 98 % 15 lf 1014,5 hPa 0,0 l/m 0 min 0 min 56 W/m 10,5 km/h (2 Bft)
14.07.2015 07:46 17,2 C 16,1 C 98 % 15 lf 1014,6 hPa 0,0 l/m 0 min 0 min 52 W/m 16,7 km/h (3 Bft)
14.07.2015 07:48 17,2 C 16,1 C 98 % 14 lf 1014,6 hPa 0,0 l/m 0 min 0 min 44 W/m 20,9 km/h (4 Bft)
14.07.2015 07:50 17,2 C 15,6 C 98 % 13 lf 1014,5 hPa 0,0 l/m 0 min 0 min 40 W/m 23,0 km/h (4 Bft)
14.07.2015 07:52 17,2 C 15,6 C 98 % 12 lf 1014,5 hPa 0,0 l/m 0 min 0 min 36 W/m 18,8 km/h (3 Bft)
14.07.2015 07:54 17,2 C 15,6 C 98 % 10 lf 1014,5 hPa 0,0 l/m 0 min 0 min 34 W/m 16,7 km/h (3 Bft)
14.07.2015 07:56 17,2 C 15,6 C 98 % 9 lf 1014,5 hPa 0,0 l/m 0 min 0 min 39 W/m 16,7 km/h (3 Bft)
14.07.2015 07:58 17,2 C 15,6 C 98 % 6 lf 1014,5 hPa 0,0 l/m 0 min 0 min 40 W/m 14,6 km/h (3 Bft)
14.07.2015 08:00 17,2 C 16,1 C 98 % 4 lf 1014,4 hPa 0,0 l/m 0 min 0 min 41 W/m 10,5 km/h (2 Bft)
14.07.2015 08:02 17,2 C 16,1 C 98 % 3 lf 1014,5 hPa 0,0 l/m 0 min 0 min 36 W/m 25,1 km/h (4 Bft)
14.07.2015 08:04 17,2 C 15,6 C 98 % 3 lf 1014,5 hPa 0,0 l/m 0 min 0 min 46 W/m 16,7 km/h (3 Bft)
14.07.2015 08:06 17,2 C 15,6 C 98 % 2 lf 1014,5 hPa 0,0 l/m 0 min 0 min 53 W/m 23,0 km/h (4 Bft)
14.07.2015 08:08 17,2 C 16,1 C 98 % 2 lf 1014,4 hPa 0,0 l/m 0 min 0 min 53 W/m 18,8 km/h (3 Bft)
14.07.2015 08:10 17,2 C 16,1 C 98 % 2 lf 1014,4 hPa 0,0 l/m 0 min 0 min 57 W/m 25,1 km/h (4 Bft)
14.07.2015 08:12 17,2 C 15,6 C 98 % 2 lf 1014,4 hPa 0,0 l/m 0 min 0 min 55 W/m 18,8 km/h (3 Bft)
14.07.2015 08:14 17,2 C 16,1 C 98 % 1 lf 1014,4 hPa 0,0 l/m 0 min 0 min 53 W/m 14,6 km/h (3 Bft)
14.07.2015 08:16 17,2 C 16,1 C 98 % 1 lf 1014,4 hPa 0,0 l/m 0 min 0 min 55 W/m 20,9 km/h (4 Bft)
14.07.2015 08:18 17,2 C 15,6 C 98 % 1 lf 1014,4 hPa 0,0 l/m 0 min 0 min 59 W/m 16,7 km/h (3 Bft)
14.07.2015 08:20 17,2 C 15,6 C 98 % 1 lf 1014,4 hPa 0,0 l/m 0 min 0 min 63 W/m 25,1 km/h (4 Bft)
14.07.2015 08:22 17,2 C 16,1 C 98 % 1 lf 1014,4 hPa 0,0 l/m 0 min 0 min 57 W/m 20,9 km/h (4 Bft)
14.07.2015 08:24 17,3 C 16,1 C 98 % 1 lf 1014,4 hPa 0,0 l/m 0 min 0 min 55 W/m 18,8 km/h (3 Bft)
14.07.2015 08:26 17,3 C 16,1 C 98 % 1 lf 1014,4 hPa 0,0 l/m 0 min 0 min 54 W/m 29,3 km/h (5 Bft)
14.07.2015 08:28 17,3 C 16,1 C 98 % 1 lf 1014,4 hPa 0,0 l/m 0 min 0 min 54 W/m 20,9 km/h (4 Bft)
14.07.2015 08:30 17,3 C 16,1 C 98 % 1 lf 1014,4 hPa 0,0 l/m 0 min 0 min 57 W/m 20,9 km/h (4 Bft)
14.07.2015 08:32 17,3 C 16,1 C 98 % 1 lf 1014,4 hPa 0,0 l/m 0 min 0 min 54 W/m 23,0 km/h (4 Bft)
14.07.2015 08:34 17,3 C 16,1 C 98 % 1 lf 1014,4 hPa 0,0 l/m 0 min 0 min 64 W/m 20,9 km/h (4 Bft)
14.07.2015 08:36 17,3 C 16,1 C 98 % 1 lf 1014,6 hPa 0,0 l/m 0 min 0 min 66 W/m 20,9 km/h (4 Bft)
14.07.2015 08:38 17,3 C 16,1 C 98 % 1 lf 1014,6 hPa 0,0 l/m 0 min 0 min 45 W/m 18,8 km/h (3 Bft)
14.07.2015 08:40 17,3 C 16,1 C 98 % 1 lf 1014,7 hPa 0,0 l/m 0 min 0 min 58 W/m 18,8 km/h (3 Bft)
14.07.2015 08:42 17,3 C 16,1 C 98 % 1 lf 1014,7 hPa 0,0 l/m 0 min 0 min 58 W/m 25,1 km/h (4 Bft)
14.07.2015 08:44 17,3 C 16,1 C 98 % 1 lf 1014,7 hPa 0,0 l/m 0 min 0 min 67 W/m 18,8 km/h (3 Bft)
14.07.2015 08:46 17,3 C 16,1 C 98 % 1 lf 1014,7 hPa 0,0 l/m 0 min 0 min 59 W/m 18,8 km/h (3 Bft)
14.07.2015 08:48 17,3 C 16,1 C 98 % 1 lf 1014,7 hPa 0,0 l/m 0 min 0 min 59 W/m 18,8 km/h (3 Bft)
14.07.2015 08:50 17,3 C 16,1 C 98 % 1 lf 1014,7 hPa 0,0 l/m 0 min 0 min 53 W/m 16,7 km/h (3 Bft)
14.07.2015 08:52 17,3 C 16,1 C 98 % 1 lf 1014,7 hPa 0,0 l/m 0 min 0 min 57 W/m 16,7 km/h (3 Bft)
14.07.2015 08:54 17,4 C 16,1 C 98 % 1 lf 1014,7 hPa 0,0 l/m 0 min 0 min 45 W/m 12,6 km/h (3 Bft)
14.07.2015 08:56 17,4 C 16,1 C 98 % 1 lf 1014,8 hPa 0,0 l/m 0 min 0 min 36 W/m 12,6 km/h (3 Bft)
14.07.2015 08:58 17,4 C 16,1 C 98 % 1 lf 1014,8 hPa 0,0 l/m 0 min 0 min 41 W/m 18,8 km/h (3 Bft)
14.07.2015 09:00 17,4 C 16,1 C 98 % 3 lf 1014,8 hPa 0,0 l/m 0 min 0 min 45 W/m 18,8 km/h (3 Bft)
14.07.2015 09:02 17,4 C 16,1 C 98 % 2 lf 1014,8 hPa 0,0 l/m 0 min 0 min 59 W/m 25,1 km/h (4 Bft)
14.07.2015 09:04 17,4 C 16,1 C 98 % 2 lf 1014,9 hPa 0,0 l/m 0 min 0 min 72 W/m 23,0 km/h (4 Bft)
14.07.2015 09:06 17,4 C 16,1 C 98 % 3 lf 1014,8 hPa 0,0 l/m 0 min 0 min 73 W/m 18,8 km/h (3 Bft)
14.07.2015 09:08 17,4 C 16,1 C 98 % 3 lf 1014,9 hPa 0,0 l/m 0 min 0 min 75 W/m 20,9 km/h (4 Bft)
14.07.2015 09:10 17,4 C 16,1 C 98 % 13 lf 1014,8 hPa 0,0 l/m 0 min 0 min 89 W/m 18,8 km/h (3 Bft)
14.07.2015 09:12 17,4 C 16,1 C 98 % 12 lf 1014,9 hPa 0,0 l/m 0 min 0 min 112 W/m 23,0 km/h (4 Bft)
14.07.2015 09:14 17,4 C 16,1 C 98 % 10 lf 1014,9 hPa 0,0 l/m 0 min 0 min 126 W/m 20,9 km/h (4 Bft)
14.07.2015 09:16 17,4 C 16,1 C 98 % 9 lf 1015,0 hPa 0,0 l/m 0 min 0 min 144 W/m 18,8 km/h (3 Bft)
14.07.2015 09:18 17,4 C 16,1 C 98 % 6 lf 1015,0 hPa 0,0 l/m 0 min 0 min 137 W/m 16,7 km/h (3 Bft)
14.07.2015 09:20 17,4 C 16,1 C 98 % 4 lf 1014,9 hPa 0,0 l/m 0 min 0 min 112 W/m 25,1 km/h (4 Bft)
14.07.2015 09:22 17,5 C 16,1 C 98 % 4 lf 1015,0 hPa 0,0 l/m 0 min 0 min 104 W/m 18,8 km/h (3 Bft)
14.07.2015 09:24 17,5 C 16,1 C 98 % 3 lf 1015,0 hPa 0,0 l/m 0 min 2 min 112 W/m 16,7 km/h (3 Bft)
14.07.2015 09:26 17,6 C 16,1 C 98 % 2 lf 1015,0 hPa 0,0 l/m 0 min 2 min 120 W/m 12,6 km/h (3 Bft)
14.07.2015 09:28 17,6 C 16,1 C 98 % 1 lf 1015,0 hPa 0,0 l/m 0 min 2 min 111 W/m 14,6 km/h (3 Bft)
14.07.2015 09:30 17,6 C 16,1 C 98 % 1 lf 1015,1 hPa 0,0 l/m 0 min 0 min 110 W/m 18,8 km/h (3 Bft)
14.07.2015 09:32 17,6 C 16,1 C 98 % 1 lf 1015,1 hPa 0,0 l/m 0 min 0 min 99 W/m 16,7 km/h (3 Bft)
14.07.2015 09:34 17,6 C 16,1 C 98 % 1 lf 1015,1 hPa 0,0 l/m 0 min 0 min 99 W/m 16,7 km/h (3 Bft)
14.07.2015 09:36 17,6 C 16,1 C 98 % 1 lf 1015,1 hPa 0,0 l/m 0 min 0 min 104 W/m 18,8 km/h (3 Bft)
14.07.2015 09:38 17,6 C 16,1 C 98 % 1 lf 1015,1 hPa 0,0 l/m 0 min 0 min 128 W/m 23,0 km/h (4 Bft)
14.07.2015 09:40 17,6 C 16,7 C 98 % 1 lf 1015,1 hPa 0,0 l/m 0 min 0 min 125 W/m 16,7 km/h (3 Bft)
14.07.2015 09:42 17,7 C 16,1 C 98 % 1 lf 1015,0 hPa 0,0 l/m 0 min 0 min 121 W/m 23,0 km/h (4 Bft)
14.07.2015 09:44 17,7 C 16,1 C 98 % 1 lf 1015,1 hPa 0,0 l/m 0 min 0 min 105 W/m 23,0 km/h (4 Bft)
14.07.2015 09:46 17,6 C 16,1 C 98 % 1 lf 1015,1 hPa 0,0 l/m 0 min 0 min 89 W/m 16,7 km/h (3 Bft)
14.07.2015 09:48 17,7 C 16,1 C 98 % 1 lf 1015,1 hPa 0,0 l/m 0 min 0 min 94 W/m 25,1 km/h (4 Bft)
14.07.2015 09:50 17,7 C 16,1 C 98 % 1 lf 1015,0 hPa 0,0 l/m 0 min 0 min 98 W/m 16,7 km/h (3 Bft)
14.07.2015 09:52 17,7 C 16,1 C 98 % 1 lf 1015,1 hPa 0,0 l/m 0 min 0 min 114 W/m 25,1 km/h (4 Bft)
14.07.2015 09:54 17,7 C 16,1 C 98 % 1 lf 1015,1 hPa 0,0 l/m 0 min 0 min 82 W/m 23,0 km/h (4 Bft)
14.07.2015 09:56 17,6 C 16,1 C 97 % 1 lf 1015,1 hPa 0,0 l/m 0 min 0 min 88 W/m 18,8 km/h (3 Bft)
14.07.2015 09:58 17,7 C 16,1 C 97 % 1 lf 1015,1 hPa 0,0 l/m 0 min 0 min 114 W/m 16,7 km/h (3 Bft)
14.07.2015 10:00 17,7 C 16,7 C 97 % 1 lf 1015,1 hPa 0,0 l/m 0 min 0 min 155 W/m 14,6 km/h (3 Bft)
14.07.2015 10:02 17,7 C 16,7 C 97 % 1 lf 1015,1 hPa 0,0 l/m 0 min 0 min 140 W/m 16,7 km/h (3 Bft)
14.07.2015 10:04 17,7 C 16,7 C 97 % 1 lf 1015,2 hPa 0,0 l/m 0 min 0 min 135 W/m 16,7 km/h (3 Bft)
14.07.2015 10:06 17,7 C 16,7 C 97 % 0 lf 1015,1 hPa 0,0 l/m 0 min 0 min 107 W/m 12,6 km/h (3 Bft)
14.07.2015 10:08 17,7 C 16,7 C 98 % 0 lf 1015,2 hPa 0,0 l/m 0 min 0 min 116 W/m 12,6 km/h (3 Bft)
14.07.2015 10:10 17,8 C 16,7 C 98 % 0 lf 1015,2 hPa 0,0 l/m 0 min 0 min 102 W/m 14,6 km/h (3 Bft)
14.07.2015 10:12 17,8 C 16,7 C 98 % 0 lf 1015,2 hPa 0,0 l/m 0 min 0 min 124 W/m 12,6 km/h (3 Bft)
14.07.2015 10:14 17,8 C 16,7 C 98 % 0 lf 1015,2 hPa 0,0 l/m 0 min 0 min 129 W/m 14,6 km/h (3 Bft)
14.07.2015 10:16 17,8 C 16,7 C 98 % 0 lf 1015,2 hPa 0,0 l/m 0 min 0 min 142 W/m 18,8 km/h (3 Bft)
14.07.2015 10:18 17,8 C 16,7 C 98 % 1 lf 1015,1 hPa 0,0 l/m 0 min 0 min 119 W/m 18,8 km/h (3 Bft)
14.07.2015 10:20 17,8 C 16,7 C 98 % 0 lf 1015,1 hPa 0,0 l/m 0 min 0 min 121 W/m 27,2 km/h (4 Bft)
14.07.2015 10:22 17,8 C 16,1 C 97 % 1 lf 1015,1 hPa 0,0 l/m 0 min 0 min 85 W/m 18,8 km/h (3 Bft)
14.07.2015 10:24 17,8 C 16,7 C 97 % 0 lf 1015,1 hPa 0,0 l/m 0 min 0 min 107 W/m 16,7 km/h (3 Bft)
14.07.2015 10:26 17,8 C 16,7 C 97 % 0 lf 1015,2 hPa 0,0 l/m 0 min 0 min 134 W/m 10,5 km/h (2 Bft)
14.07.2015 10:28 17,9 C 16,7 C 97 % 0 lf 1015,1 hPa 0,0 l/m 0 min 0 min 185 W/m 16,7 km/h (3 Bft)
14.07.2015 10:30 17,9 C 16,7 C 97 % 0 lf 1015,1 hPa 0,0 l/m 0 min 0 min 237 W/m 16,7 km/h (3 Bft)
14.07.2015 10:32 17,9 C 16,7 C 97 % 0 lf 1015,2 hPa 0,0 l/m 0 min 0 min 168 W/m 14,6 km/h (3 Bft)
14.07.2015 10:34 18,0 C 16,7 C 97 % 0 lf 1015,1 hPa 0,0 l/m 0 min 0 min 137 W/m 10,5 km/h (2 Bft)
14.07.2015 10:36 18,0 C 16,7 C 97 % 0 lf 1015,2 hPa 0,0 l/m 0 min 0 min 139 W/m 12,6 km/h (3 Bft)
14.07.2015 10:38 18,1 C 16,7 C 97 % 0 lf 1015,2 hPa 0,0 l/m 0 min 0 min 106 W/m 14,6 km/h (3 Bft)
14.07.2015 10:40 18,1 C 16,7 C 97 % 0 lf 1015,3 hPa 0,0 l/m 0 min 0 min 99 W/m 16,7 km/h (3 Bft)
14.07.2015 10:42 18,1 C 16,7 C 97 % 0 lf 1015,2 hPa 0,0 l/m 0 min 0 min 134 W/m 20,9 km/h (4 Bft)
14.07.2015 10:44 18,1 C 16,7 C 97 % 0 lf 1015,3 hPa 0,0 l/m 0 min 0 min 162 W/m 16,7 km/h (3 Bft)
14.07.2015 10:46 18,1 C 16,7 C 97 % 0 lf 1015,3 hPa 0,0 l/m 0 min 0 min 154 W/m 18,8 km/h (3 Bft)
14.07.2015 10:48 18,1 C 16,7 C 97 % 0 lf 1015,3 hPa 0,0 l/m 0 min 0 min 110 W/m 14,6 km/h (3 Bft)
14.07.2015 10:50 18,1 C 16,7 C 97 % 0 lf 1015,3 hPa 0,0 l/m 0 min 0 min 87 W/m 16,7 km/h (3 Bft)
14.07.2015 10:52 18,2 C 16,7 C 97 % 0 lf 1015,3 hPa 0,0 l/m 0 min 0 min 68 W/m 10,5 km/h (2 Bft)
14.07.2015 10:54 18,2 C 16,7 C 97 % 0 lf 1015,3 hPa 0,0 l/m 0 min 0 min 53 W/m 12,6 km/h (3 Bft)
14.07.2015 10:56 18,2 C 16,7 C 97 % 0 lf 1015,2 hPa 0,0 l/m 0 min 0 min 45 W/m 6,3 km/h (2 Bft)
14.07.2015 10:58 18,2 C 16,7 C 97 % 0 lf 1015,3 hPa 0,0 l/m 0 min 0 min 52 W/m 16,7 km/h (3 Bft)
14.07.2015 11:00 18,2 C 16,7 C 96 % 0 lf 1015,4 hPa 0,0 l/m 0 min 2 min 57 W/m 18,8 km/h (3 Bft)
14.07.2015 11:02 18,2 C 16,7 C 96 % 0 lf 1015,4 hPa 0,0 l/m 0 min 0 min 131 W/m 16,7 km/h (3 Bft)
14.07.2015 11:04 18,2 C 16,7 C 96 % 0 lf 1015,4 hPa 0,0 l/m 0 min 0 min 196 W/m 16,7 km/h (3 Bft)
14.07.2015 11:06 18,2 C 16,7 C 96 % 0 lf 1015,3 hPa 0,0 l/m 0 min 0 min 190 W/m 25,1 km/h (4 Bft)
14.07.2015 11:08 18,2 C 16,7 C 96 % 0 lf 1015,4 hPa 0,0 l/m 0 min 0 min 154 W/m 16,7 km/h (3 Bft)
14.07.2015 11:10 18,2 C 16,7 C 96 % 0 lf 1015,4 hPa 0,0 l/m 0 min 0 min 149 W/m 18,8 km/h (3 Bft)
14.07.2015 11:12 18,3 C 16,7 C 96 % 0 lf 1015,4 hPa 0,0 l/m 0 min 0 min 126 W/m 16,7 km/h (3 Bft)
14.07.2015 11:14 18,3 C 16,7 C 96 % 0 lf 1015,4 hPa 0,0 l/m 0 min 0 min 129 W/m 16,7 km/h (3 Bft)
14.07.2015 11:16 18,3 C 16,7 C 96 % 0 lf 1015,4 hPa 0,0 l/m 0 min 0 min 179 W/m 12,6 km/h (3 Bft)
14.07.2015 11:18 18,4 C 17,2 C 96 % 0 lf 1015,4 hPa 0,0 l/m 0 min 0 min 188 W/m 20,9 km/h (4 Bft)
14.07.2015 11:20 18,4 C 16,7 C 96 % 0 lf 1015,4 hPa 0,0 l/m 0 min 0 min 188 W/m 20,9 km/h (4 Bft)
14.07.2015 11:22 18,4 C 16,7 C 96 % 0 lf 1015,4 hPa 0,0 l/m 0 min 0 min 171 W/m 14,6 km/h (3 Bft)
14.07.2015 11:24 18,5 C 17,2 C 95 % 0 lf 1015,5 hPa 0,0 l/m 0 min 0 min 199 W/m 12,6 km/h (3 Bft)
14.07.2015 11:26 18,5 C 17,2 C 95 % 0 lf 1015,4 hPa 0,0 l/m 0 min 0 min 268 W/m 16,7 km/h (3 Bft)
14.07.2015 11:28 18,6 C 17,2 C 95 % 0 lf 1015,5 hPa 0,0 l/m 0 min 0 min 310 W/m 23,0 km/h (4 Bft)
14.07.2015 11:30 18,6 C 17,8 C 95 % 0 lf 1015,4 hPa 0,0 l/m 0 min 0 min 307 W/m 16,7 km/h (3 Bft)
14.07.2015 11:32 18,7 C 17,8 C 95 % 0 lf 1015,4 hPa 0,0 l/m 0 min 0 min 299 W/m 18,8 km/h (3 Bft)
14.07.2015 11:34 18,7 C 17,8 C 95 % 0 lf 1015,5 hPa 0,0 l/m 0 min 0 min 234 W/m 20,9 km/h (4 Bft)
14.07.2015 11:36 18,7 C 17,2 C 94 % 0 lf 1015,5 hPa 0,0 l/m 0 min 0 min 197 W/m 27,2 km/h (4 Bft)
14.07.2015 11:38 18,8 C 17,2 C 94 % 0 lf 1015,6 hPa 0,0 l/m 0 min 0 min 149 W/m 23,0 km/h (4 Bft)
14.07.2015 11:40 18,8 C 17,2 C 94 % 0 lf 1015,6 hPa 0,0 l/m 0 min 0 min 143 W/m 25,1 km/h (4 Bft)
14.07.2015 11:42 18,8 C 17,2 C 94 % 0 lf 1015,6 hPa 0,0 l/m 0 min 0 min 175 W/m 23,0 km/h (4 Bft)
14.07.2015 11:44 18,9 C 17,2 C 93 % 0 lf 1015,7 hPa 0,0 l/m 0 min 0 min 193 W/m 25,1 km/h (4 Bft)
14.07.2015 11:46 18,9 C 16,7 C 93 % 0 lf 1015,7 hPa 0,0 l/m 0 min 0 min 114 W/m 23,0 km/h (4 Bft)
14.07.2015 11:48 18,9 C 17,2 C 93 % 0 lf 1015,7 hPa 0,0 l/m 0 min 0 min 154 W/m 25,1 km/h (4 Bft)
14.07.2015 11:50 18,9 C 16,7 C 93 % 0 lf 1015,6 hPa 0,0 l/m 0 min 0 min 145 W/m 20,9 km/h (4 Bft)
14.07.2015 11:52 18,8 C 16,7 C 92 % 0 lf 1015,7 hPa 0,0 l/m 0 min 0 min 158 W/m 18,8 km/h (3 Bft)
14.07.2015 11:54 18,8 C 17,2 C 92 % 0 lf 1015,6 hPa 0,0 l/m 0 min 0 min 190 W/m 18,8 km/h (3 Bft)
14.07.2015 11:56 18,8 C 17,2 C 92 % 0 lf 1015,6 hPa 0,0 l/m 0 min 0 min 199 W/m 18,8 km/h (3 Bft)
14.07.2015 11:58 18,9 C 17,2 C 92 % 0 lf 1015,6 hPa 0,0 l/m 0 min 0 min 189 W/m 23,0 km/h (4 Bft)
14.07.2015 12:00 18,9 C 17,2 C 92 % 0 lf 1015,7 hPa 0,0 l/m 0 min 0 min 197 W/m 18,8 km/h (3 Bft)
14.07.2015 12:02 18,9 C 17,8 C 92 % 0 lf 1015,6 hPa 0,0 l/m 0 min 0 min 304 W/m 20,9 km/h (4 Bft)
14.07.2015 12:05 19,0 C 18,3 C 93 % 0 lf 1015,7 hPa 0,0 l/m 2 min 0 min 414 W/m 16,7 km/h (3 Bft)
14.07.2015 12:06 19,1 C 18,9 C 93 % 0 lf 1015,7 hPa 0,0 l/m 1 min 0 min 423 W/m 16,7 km/h (3 Bft)
14.07.2015 12:08 19,2 C 19,4 C 92 % 0 lf 1015,7 hPa 0,0 l/m 2 min 0 min 406 W/m 14,6 km/h (3 Bft)
14.07.2015 12:10 19,2 C 20,0 C 93 % 0 lf 1015,7 hPa 0,0 l/m 2 min 0 min 467 W/m 18,8 km/h (3 Bft)
14.07.2015 12:12 19,3 C 20,0 C 93 % 0 lf 1015,7 hPa 0,0 l/m 2 min 0 min 451 W/m 14,6 km/h (3 Bft)
14.07.2015 12:14 19,4 C 20,0 C 92 % 0 lf 1015,7 hPa 0,0 l/m 2 min 0 min 401 W/m 18,8 km/h (3 Bft)
14.07.2015 12:16 19,5 C 19,4 C 92 % 2 lf 1015,7 hPa 0,0 l/m 0 min 0 min 130 W/m 18,8 km/h (3 Bft)
14.07.2015 12:18 19,5 C 17,8 C 92 % 15 lf 1015,7 hPa 0,0 l/m 0 min 2 min 96 W/m 27,2 km/h (4 Bft)
14.07.2015 12:20 19,5 C 17,2 C 91 % 14 lf 1015,7 hPa 0,0 l/m 0 min 2 min 121 W/m 16,7 km/h (3 Bft)
14.07.2015 12:22 19,5 C 17,2 C 91 % 14 lf 1015,7 hPa 0,0 l/m 0 min 0 min 150 W/m 16,7 km/h (3 Bft)
14.07.2015 12:24 19,5 C 17,2 C 91 % 14 lf 1015,7 hPa 0,0 l/m 0 min 0 min 161 W/m 16,7 km/h (3 Bft)
14.07.2015 12:26 19,4 C 17,2 C 91 % 12 lf 1015,8 hPa 0,0 l/m 0 min 0 min 143 W/m 18,8 km/h (3 Bft)
14.07.2015 12:28 19,4 C 17,2 C 91 % 9 lf 1015,8 hPa 0,0 l/m 0 min 0 min 156 W/m 14,6 km/h (3 Bft)
14.07.2015 12:30 19,4 C 17,8 C 91 % 3 lf 1015,8 hPa 0,0 l/m 0 min 0 min 224 W/m 20,9 km/h (4 Bft)
14.07.2015 12:32 19,4 C 17,8 C 91 % 0 lf 1015,9 hPa 0,0 l/m 0 min 0 min 218 W/m 10,5 km/h (2 Bft)
14.07.2015 12:34 19,4 C 17,8 C 91 % 0 lf 1015,9 hPa 0,0 l/m 0 min 0 min 167 W/m 25,1 km/h (4 Bft)
14.07.2015 12:36 19,4 C 18,3 C 91 % 0 lf 1015,9 hPa 0,0 l/m 0 min 0 min 212 W/m 14,6 km/h (3 Bft)
14.07.2015 12:38 19,4 C 18,3 C 91 % 0 lf 1016,0 hPa 0,0 l/m 0 min 0 min 257 W/m 16,7 km/h (3 Bft)
14.07.2015 12:40 19,4 C 18,3 C 91 % 0 lf 1015,9 hPa 0,0 l/m 0 min 0 min 285 W/m 12,6 km/h (3 Bft)
14.07.2015 12:42 19,5 C 18,9 C 92 % 0 lf 1015,9 hPa 0,0 l/m 0 min 0 min 402 W/m 23,0 km/h (4 Bft)
14.07.2015 12:44 19,6 C 19,4 C 92 % 0 lf 1015,9 hPa 0,0 l/m 2 min 0 min 463 W/m 14,6 km/h (3 Bft)
14.07.2015 12:46 19,7 C 20,0 C 92 % 0 lf 1015,9 hPa 0,0 l/m 2 min 0 min 415 W/m 18,8 km/h (3 Bft)
14.07.2015 12:48 19,7 C 20,0 C 92 % 0 lf 1015,9 hPa 0,0 l/m 0 min 0 min 347 W/m 18,8 km/h (3 Bft)
14.07.2015 12:50 19,7 C 19,4 C 91 % 0 lf 1015,8 hPa 0,0 l/m 0 min 0 min 243 W/m 18,8 km/h (3 Bft)
14.07.2015 12:52 19,8 C 18,9 C 91 % 0 lf 1015,8 hPa 0,0 l/m 0 min 0 min 142 W/m 27,2 km/h (4 Bft)
14.07.2015 12:54 19,8 C 18,9 C 90 % 0 lf 1015,8 hPa 0,0 l/m 0 min 0 min 94 W/m 12,6 km/h (3 Bft)
14.07.2015 12:56 19,8 C 18,3 C 90 % 0 lf 1015,8 hPa 0,0 l/m 0 min 0 min 82 W/m 23,0 km/h (4 Bft)
14.07.2015 12:58 19,7 C 18,3 C 90 % 0 lf 1015,9 hPa 0,0 l/m 0 min 0 min 88 W/m 23,0 km/h (4 Bft)
14.07.2015 13:00 19,7 C 17,8 C 89 % 0 lf 1015,9 hPa 0,0 l/m 0 min 0 min 92 W/m 25,1 km/h (4 Bft)
14.07.2015 13:02 19,6 C 17,8 C 89 % 0 lf 1016,0 hPa 0,0 l/m 0 min 0 min 93 W/m 16,7 km/h (3 Bft)
14.07.2015 13:04 19,6 C 17,8 C 89 % 0 lf 1015,9 hPa 0,0 l/m 0 min 0 min 101 W/m 18,8 km/h (3 Bft)
14.07.2015 13:06 19,6 C 17,8 C 89 % 0 lf 1015,9 hPa 0,0 l/m 0 min 0 min 123 W/m 14,6 km/h (3 Bft)
14.07.2015 13:08 19,6 C 17,8 C 89 % 0 lf 1015,9 hPa 0,0 l/m 0 min 0 min 138 W/m 16,7 km/h (3 Bft)
14.07.2015 13:10 19,6 C 17,8 C 89 % 0 lf 1016,0 hPa 0,0 l/m 0 min 0 min 145 W/m 18,8 km/h (3 Bft)
14.07.2015 13:12 19,6 C 18,3 C 89 % 0 lf 1015,9 hPa 0,0 l/m 0 min 0 min 153 W/m 16,7 km/h (3 Bft)
14.07.2015 13:14 19,6 C 18,3 C 89 % 0 lf 1015,9 hPa 0,0 l/m 0 min 0 min 162 W/m 16,7 km/h (3 Bft)
14.07.2015 13:16 19,6 C 18,3 C 89 % 2 lf 1015,9 hPa 0,0 l/m 0 min 0 min 162 W/m 18,8 km/h (3 Bft)
14.07.2015 13:18 19,6 C 17,8 C 89 % 10 lf 1016,0 hPa 0,0 l/m 0 min 2 min 165 W/m 12,6 km/h (3 Bft)
14.07.2015 13:20 19,6 C 17,8 C 89 % 15 lf 1016,1 hPa 0,0 l/m 0 min 2 min 173 W/m 12,6 km/h (3 Bft)
14.07.2015 13:22 19,7 C 17,2 C 90 % 15 lf 1016,1 hPa 0,0 l/m 0 min 2 min 169 W/m 12,6 km/h (3 Bft)
14.07.2015 13:24 19,7 C 17,2 C 90 % 15 lf 1016,0 hPa 0,0 l/m 0 min 2 min 154 W/m 14,6 km/h (3 Bft)
14.07.2015 13:26 19,7 C 17,2 C 90 % 15 lf 1016,1 hPa 0,0 l/m 0 min 2 min 167 W/m 16,7 km/h (3 Bft)
14.07.2015 13:28 19,7 C 17,2 C 90 % 15 lf 1016,1 hPa 0,0 l/m 0 min 0 min 185 W/m 25,1 km/h (4 Bft)
14.07.2015 13:30 19,7 C 17,2 C 90 % 15 lf 1016,1 hPa 0,0 l/m 0 min 2 min 193 W/m 20,9 km/h (4 Bft)
14.07.2015 13:32 19,6 C 17,2 C 91 % 15 lf 1016,1 hPa 0,0 l/m 0 min 0 min 193 W/m 16,7 km/h (3 Bft)
14.07.2015 13:34 19,6 C 17,8 C 91 % 15 lf 1016,2 hPa 0,0 l/m 0 min 0 min 222 W/m 16,7 km/h (3 Bft)
14.07.2015 13:36 19,6 C 17,2 C 91 % 15 lf 1016,1 hPa 0,0 l/m 0 min 0 min 240 W/m 16,7 km/h (3 Bft)
14.07.2015 13:38 19,6 C 17,8 C 91 % 15 lf 1016,1 hPa 0,0 l/m 0 min 0 min 239 W/m 18,8 km/h (3 Bft)
14.07.2015 13:40 19,6 C 17,8 C 91 % 15 lf 1016,1 hPa 0,0 l/m 0 min 0 min 226 W/m 14,6 km/h (3 Bft)
14.07.2015 13:42 19,7 C 17,8 C 91 % 15 lf 1016,1 hPa 0,0 l/m 0 min 0 min 208 W/m 10,5 km/h (2 Bft)
14.07.2015 13:44 19,7 C 17,8 C 92 % 15 lf 1016,1 hPa 0,0 l/m 0 min 0 min 206 W/m 14,6 km/h (3 Bft)
14.07.2015 13:46 19,7 C 17,8 C 92 % 15 lf 1016,2 hPa 0,0 l/m 0 min 0 min 218 W/m 16,7 km/h (3 Bft)
14.07.2015 13:48 19,7 C 17,8 C 92 % 14 lf 1016,1 hPa 0,0 l/m 0 min 0 min 224 W/m 27,2 km/h (4 Bft)
14.07.2015 13:50 19,7 C 17,8 C 92 % 11 lf 1016,2 hPa 0,0 l/m 0 min 0 min 252 W/m 25,1 km/h (4 Bft)
14.07.2015 13:52 19,7 C 17,8 C 92 % 3 lf 1016,2 hPa 0,0 l/m 0 min 0 min 257 W/m 12,6 km/h (3 Bft)
14.07.2015 13:54 19,7 C 18,3 C 91 % 0 lf 1016,2 hPa 0,0 l/m 0 min 0 min 280 W/m 8,4 km/h (2 Bft)
14.07.2015 13:56 19,8 C 18,3 C 92 % 0 lf 1016,2 hPa 0,0 l/m 0 min 0 min 335 W/m 14,6 km/h (3 Bft)
14.07.2015 13:58 19,8 C 18,3 C 91 % 0 lf 1016,2 hPa 0,0 l/m 2 min 0 min 424 W/m 25,1 km/h (4 Bft)
14.07.2015 14:00 19,9 C 18,9 C 91 % 0 lf 1016,2 hPa 0,0 l/m 2 min 0 min 509 W/m 27,2 km/h (4 Bft)
14.07.2015 14:02 20,0 C 19,4 C 91 % 0 lf 1016,2 hPa 0,0 l/m 2 min 0 min 565 W/m 16,7 km/h (3 Bft)
14.07.2015 14:04 20,1 C 19,4 C 91 % 0 lf 1016,3 hPa 0,0 l/m 2 min 0 min 588 W/m 18,8 km/h (3 Bft)
14.07.2015 14:06 20,3 C 20,6 C 91 % 0 lf 1016,2 hPa 0,0 l/m 2 min 0 min 534 W/m 14,6 km/h (3 Bft)
14.07.2015 14:08 20,4 C 21,1 C 91 % 0 lf 1016,3 hPa 0,0 l/m 2 min 0 min 480 W/m 20,9 km/h (4 Bft)
14.07.2015 14:10 20,6 C 21,1 C 91 % 0 lf 1016,3 hPa 0,0 l/m 2 min 0 min 452 W/m 12,6 km/h (3 Bft)
14.07.2015 14:12 20,7 C 21,1 C 90 % 0 lf 1016,2 hPa 0,0 l/m 0 min 0 min 376 W/m 23,0 km/h (4 Bft)
14.07.2015 14:14 20,8 C 21,1 C 89 % 0 lf 1016,2 hPa 0,0 l/m 0 min 0 min 365 W/m 20,9 km/h (4 Bft)
14.07.2015 14:16 20,9 C 21,1 C 89 % 0 lf 1016,3 hPa 0,0 l/m 0 min 0 min 386 W/m 18,8 km/h (3 Bft)
14.07.2015 14:18 21,0 C 21,1 C 88 % 0 lf 1016,2 hPa 0,0 l/m 0 min 0 min 401 W/m 29,3 km/h (5 Bft)
14.07.2015 14:20 21,1 C 21,1 C 87 % 0 lf 1016,2 hPa 0,0 l/m 0 min 0 min 398 W/m 23,0 km/h (4 Bft)
14.07.2015 14:22 21,2 C 21,1 C 86 % 0 lf 1016,3 hPa 0,0 l/m 0 min 0 min 366 W/m 23,0 km/h (4 Bft)
14.07.2015 14:24 21,3 C 21,1 C 86 % 0 lf 1016,2 hPa 0,0 l/m 0 min 0 min 320 W/m 27,2 km/h (4 Bft)
14.07.2015 14:26 21,3 C 21,1 C 86 % 0 lf 1016,3 hPa 0,0 l/m 0 min 0 min 342 W/m 20,9 km/h (4 Bft)
14.07.2015 14:28 21,3 C 21,1 C 85 % 0 lf 1016,3 hPa 0,0 l/m 0 min 0 min 324 W/m 25,1 km/h (4 Bft)
14.07.2015 14:30 21,4 C 21,1 C 84 % 0 lf 1016,3 hPa 0,0 l/m 0 min 0 min 334 W/m 16,7 km/h (3 Bft)
14.07.2015 14:32 21,4 C 21,1 C 85 % 0 lf 1016,2 hPa 0,0 l/m 0 min 0 min 371 W/m 18,8 km/h (3 Bft)
14.07.2015 14:34 21,5 C 21,1 C 84 % 0 lf 1016,3 hPa 0,0 l/m 0 min 0 min 379 W/m 16,7 km/h (3 Bft)
14.07.2015 14:36 21,6 C 21,7 C 85 % 0 lf 1016,4 hPa 0,0 l/m 0 min 0 min 405 W/m 16,7 km/h (3 Bft)
14.07.2015 14:38 21,7 C 21,7 C 84 % 0 lf 1016,4 hPa 0,0 l/m 2 min 0 min 448 W/m 16,7 km/h (3 Bft)
14.07.2015 14:40 21,7 C 22,2 C 84 % 0 lf 1016,3 hPa 0,0 l/m 2 min 0 min 460 W/m 14,6 km/h (3 Bft)
14.07.2015 14:42 21,8 C 22,2 C 84 % 0 lf 1016,3 hPa 0,0 l/m 2 min 0 min 431 W/m 18,8 km/h (3 Bft)
14.07.2015 14:44 21,9 C 22,2 C 84 % 0 lf 1016,3 hPa 0,0 l/m 2 min 0 min 440 W/m 16,7 km/h (3 Bft)
14.07.2015 14:46 21,9 C 22,2 C 83 % 0 lf 1016,3 hPa 0,0 l/m 0 min 0 min 395 W/m 23,0 km/h (4 Bft)
14.07.2015 14:48 22,0 C 21,7 C 82 % 0 lf 1016,3 hPa 0,0 l/m 0 min 0 min 346 W/m 20,9 km/h (4 Bft)
14.07.2015 14:50 22,0 C 21,7 C 82 % 0 lf 1016,4 hPa 0,0 l/m 0 min 0 min 358 W/m 20,9 km/h (4 Bft)
14.07.2015 14:52 22,1 C 21,7 C 82 % 0 lf 1016,4 hPa 0,0 l/m 0 min 0 min 328 W/m 25,1 km/h (4 Bft)
14.07.2015 14:54 22,1 C 21,1 C 81 % 0 lf 1016,4 hPa 0,0 l/m 0 min 0 min 241 W/m 20,9 km/h (4 Bft)
14.07.2015 14:56 22,0 C 20,6 C 80 % 0 lf 1016,4 hPa 0,0 l/m 0 min 0 min 150 W/m 33,5 km/h (5 Bft)
14.07.2015 14:58 21,9 C 20,0 C 79 % 0 lf 1016,4 hPa 0,0 l/m 0 min 0 min 114 W/m 31,4 km/h (5 Bft)
14.07.2015 15:00 21,8 C 18,9 C 80 % 15 lf 1016,4 hPa 0,0 l/m 0 min 2 min 152 W/m 29,3 km/h (5 Bft)
14.07.2015 15:02 21,7 C 18,3 C 81 % 15 lf 1016,4 hPa 0,0 l/m 0 min 2 min 212 W/m 23,0 km/h (4 Bft)
14.07.2015 15:04 21,6 C 18,3 C 81 % 15 lf 1016,4 hPa 0,0 l/m 0 min 2 min 265 W/m 29,3 km/h (5 Bft)
14.07.2015 15:06 21,5 C 18,9 C 82 % 13 lf 1016,5 hPa 0,0 l/m 0 min 0 min 361 W/m 29,3 km/h (5 Bft)
14.07.2015 15:08 21,3 C 19,4 C 83 % 1 lf 1016,4 hPa 0,0 l/m 2 min 0 min 444 W/m 20,9 km/h (4 Bft)
14.07.2015 15:10 21,3 C 20,0 C 84 % 0 lf 1016,4 hPa 0,0 l/m 2 min 0 min 473 W/m 18,8 km/h (3 Bft)
14.07.2015 15:12 21,4 C 21,1 C 85 % 0 lf 1016,4 hPa 0,0 l/m 2 min 0 min 921 W/m 18,8 km/h (3 Bft)
14.07.2015 15:14 21,4 C 21,7 C 85 % 0 lf 1016,4 hPa 0,0 l/m 2 min 0 min 887 W/m 14,6 km/h (3 Bft)
14.07.2015 15:16 21,5 C 21,7 C 85 % 0 lf 1016,3 hPa 0,0 l/m 2 min 0 min 728 W/m 23,0 km/h (4 Bft)
14.07.2015 15:18 21,6 C 22,2 C 85 % 0 lf 1016,3 hPa 0,0 l/m 2 min 0 min 550 W/m 23,0 km/h (4 Bft)
14.07.2015 15:20 21,7 C 22,2 C 85 % 0 lf 1016,2 hPa 0,0 l/m 2 min 0 min 467 W/m 16,7 km/h (3 Bft)
14.07.2015 15:22 21,7 C 21,7 C 84 % 0 lf 1016,3 hPa 0,0 l/m 0 min 0 min 275 W/m 27,2 km/h (4 Bft)
14.07.2015 15:24 21,7 C 21,1 C 82 % 0 lf 1016,3 hPa 0,0 l/m 0 min 0 min 220 W/m 23,0 km/h (4 Bft)
14.07.2015 15:26 21,7 C 21,1 C 82 % 0 lf 1016,3 hPa 0,0 l/m 0 min 0 min 222 W/m 23,0 km/h (4 Bft)
14.07.2015 15:28 21,7 C 20,6 C 82 % 0 lf 1016,4 hPa 0,0 l/m 0 min 0 min 206 W/m 23,0 km/h (4 Bft)
14.07.2015 15:30 21,7 C 20,6 C 82 % 0 lf 1016,4 hPa 0,0 l/m 0 min 0 min 213 W/m 27,2 km/h (4 Bft)
14.07.2015 15:32 21,7 C 20,6 C 81 % 0 lf 1016,3 hPa 0,0 l/m 0 min 0 min 258 W/m 31,4 km/h (5 Bft)
14.07.2015 15:34 21,6 C 20,0 C 81 % 0 lf 1016,5 hPa 0,0 l/m 0 min 0 min 194 W/m 31,4 km/h (5 Bft)
14.07.2015 15:36 21,6 C 20,0 C 81 % 0 lf 1016,5 hPa 0,0 l/m 0 min 0 min 148 W/m 25,1 km/h (4 Bft)
14.07.2015 15:38 21,4 C 19,4 C 81 % 0 lf 1016,4 hPa 0,0 l/m 0 min 0 min 134 W/m 29,3 km/h (5 Bft)
14.07.2015 15:40 21,4 C 19,4 C 81 % 0 lf 1016,4 hPa 0,0 l/m 0 min 0 min 136 W/m 29,3 km/h (5 Bft)
14.07.2015 15:42 21,3 C 19,4 C 81 % 0 lf 1016,4 hPa 0,0 l/m 0 min 0 min 143 W/m 20,9 km/h (4 Bft)
14.07.2015 15:44 21,3 C 20,0 C 81 % 0 lf 1016,4 hPa 0,0 l/m 0 min 0 min 194 W/m 20,9 km/h (4 Bft)
14.07.2015 15:46 21,2 C 20,0 C 82 % 0 lf 1016,4 hPa 0,0 l/m 0 min 0 min 257 W/m 16,7 km/h (3 Bft)
14.07.2015 15:48 21,2 C 20,6 C 82 % 0 lf 1016,4 hPa 0,0 l/m 0 min 0 min 260 W/m 18,8 km/h (3 Bft)
14.07.2015 15:50 21,3 C 21,1 C 83 % 0 lf 1016,5 hPa 0,0 l/m 0 min 0 min 333 W/m 23,0 km/h (4 Bft)
14.07.2015 15:52 21,3 C 21,1 C 82 % 0 lf 1016,5 hPa 0,0 l/m 0 min 0 min 348 W/m 14,6 km/h (3 Bft)
14.07.2015 15:54 21,3 C 21,1 C 83 % 0 lf 1016,5 hPa 0,0 l/m 2 min 0 min 410 W/m 31,4 km/h (5 Bft)
14.07.2015 15:56 21,4 C 21,1 C 83 % 0 lf 1016,5 hPa 0,0 l/m 0 min 0 min 337 W/m 23,0 km/h (4 Bft)
14.07.2015 15:58 21,4 C 21,1 C 82 % 0 lf 1016,5 hPa 0,0 l/m 0 min 0 min 211 W/m 16,7 km/h (3 Bft)
14.07.2015 16:00 21,4 C 20,6 C 83 % 0 lf 1016,5 hPa 0,0 l/m 0 min 0 min 133 W/m 20,9 km/h (4 Bft)
14.07.2015 16:02 21,4 C 20,0 C 82 % 1 lf 1016,5 hPa 0,0 l/m 0 min 0 min 104 W/m 25,1 km/h (4 Bft)
14.07.2015 16:04 21,4 C 20,0 C 82 % 1 lf 1016,6 hPa 0,0 l/m 0 min 0 min 99 W/m 25,1 km/h (4 Bft)
14.07.2015 16:06 21,4 C 19,4 C 82 % 0 lf 1016,6 hPa 0,0 l/m 0 min 0 min 178 W/m 31,4 km/h (5 Bft)
14.07.2015 16:08 21,3 C 19,4 C 82 % 0 lf 1016,6 hPa 0,0 l/m 0 min 0 min 244 W/m 16,7 km/h (3 Bft)
14.07.2015 16:10 21,3 C 20,0 C 82 % 0 lf 1016,5 hPa 0,0 l/m 0 min 0 min 221 W/m 23,0 km/h (4 Bft)
14.07.2015 16:12 21,3 C 20,0 C 82 % 0 lf 1016,6 hPa 0,0 l/m 0 min 0 min 267 W/m 25,1 km/h (4 Bft)
14.07.2015 16:14 21,3 C 20,0 C 83 % 0 lf 1016,5 hPa 0,0 l/m 0 min 0 min 334 W/m 16,7 km/h (3 Bft)
14.07.2015 16:16 21,3 C 20,6 C 82 % 0 lf 1016,5 hPa 0,0 l/m 2 min 0 min 415 W/m 31,4 km/h (5 Bft)
14.07.2015 16:18 21,3 C 21,1 C 82 % 0 lf 1016,6 hPa 0,0 l/m 2 min 0 min 361 W/m 27,2 km/h (4 Bft)
14.07.2015 16:20 21,3 C 21,1 C 82 % 0 lf 1016,6 hPa 0,0 l/m 0 min 0 min 295 W/m 23,0 km/h (4 Bft)
14.07.2015 16:22 21,4 C 21,1 C 82 % 0 lf 1016,6 hPa 0,0 l/m 0 min 0 min 302 W/m 23,0 km/h (4 Bft)
14.07.2015 16:24 21,4 C 21,1 C 82 % 0 lf 1016,7 hPa 0,0 l/m 0 min 0 min 285 W/m 37,7 km/h (5 Bft)
14.07.2015 16:26 21,4 C 20,6 C 82 % 0 lf 1016,6 hPa 0,0 l/m 0 min 0 min 242 W/m 25,1 km/h (4 Bft)
14.07.2015 16:28 21,4 C 20,6 C 82 % 0 lf 1016,6 hPa 0,0 l/m 0 min 0 min 218 W/m 23,0 km/h (4 Bft)
14.07.2015 16:30 21,4 C 20,6 C 81 % 0 lf 1016,6 hPa 0,0 l/m 0 min 0 min 216 W/m 25,1 km/h (4 Bft)
14.07.2015 16:32 21,3 C 20,0 C 81 % 0 lf 1016,7 hPa 0,0 l/m 0 min 0 min 225 W/m 35,6 km/h (5 Bft)
14.07.2015 16:34 21,3 C 20,0 C 81 % 0 lf 1016,7 hPa 0,0 l/m 0 min 0 min 242 W/m 25,1 km/h (4 Bft)
14.07.2015 16:36 21,2 C 20,0 C 81 % 0 lf 1016,7 hPa 0,0 l/m 0 min 0 min 248 W/m 23,0 km/h (4 Bft)
14.07.2015 16:38 21,2 C 20,0 C 81 % 0 lf 1016,7 hPa 0,0 l/m 0 min 0 min 217 W/m 25,1 km/h (4 Bft)
14.07.2015 16:40 21,2 C 20,0 C 81 % 0 lf 1016,7 hPa 0,0 l/m 0 min 0 min 188 W/m 27,2 km/h (4 Bft)
14.07.2015 16:42 21,1 C 20,0 C 81 % 0 lf 1016,7 hPa 0,0 l/m 0 min 0 min 224 W/m 31,4 km/h (5 Bft)
14.07.2015 16:44 21,1 C 20,6 C 81 % 0 lf 1016,7 hPa 0,0 l/m 0 min 0 min 230 W/m 18,8 km/h (3 Bft)
14.07.2015 16:46 21,1 C 21,1 C 82 % 0 lf 1016,6 hPa 0,0 l/m 2 min 0 min 453 W/m 20,9 km/h (4 Bft)
14.07.2015 16:48 21,2 C 21,1 C 82 % 0 lf 1016,7 hPa 0,0 l/m 2 min 0 min 473 W/m 20,9 km/h (4 Bft)
14.07.2015 16:50 21,3 C 21,1 C 82 % 0 lf 1016,7 hPa 0,0 l/m 2 min 0 min 330 W/m 23,0 km/h (4 Bft)
14.07.2015 16:52 21,3 C 21,1 C 82 % 0 lf 1016,7 hPa 0,0 l/m 0 min 0 min 309 W/m 33,5 km/h (5 Bft)
14.07.2015 16:54 21,4 C 21,1 C 81 % 0 lf 1016,7 hPa 0,0 l/m 0 min 0 min 284 W/m 27,2 km/h (4 Bft)
14.07.2015 16:56 21,4 C 21,1 C 81 % 0 lf 1016,7 hPa 0,0 l/m 2 min 0 min 326 W/m 25,1 km/h (4 Bft)
14.07.2015 16:58 21,5 C 21,7 C 81 % 0 lf 1016,7 hPa 0,0 l/m 2 min 0 min 775 W/m 20,9 km/h (4 Bft)
14.07.2015 17:00 21,6 C 21,7 C 80 % 0 lf 1016,7 hPa 0,0 l/m 2 min 0 min 633 W/m 20,9 km/h (4 Bft)
14.07.2015 17:02 21,7 C 21,7 C 80 % 0 lf 1016,7 hPa 0,0 l/m 2 min 0 min 412 W/m 25,1 km/h (4 Bft)
14.07.2015 17:04 21,7 C 21,1 C 79 % 0 lf 1016,7 hPa 0,0 l/m 0 min 0 min 263 W/m 16,7 km/h (3 Bft)
14.07.2015 17:06 21,8 C 21,1 C 80 % 0 lf 1016,7 hPa 0,0 l/m 0 min 0 min 261 W/m 29,3 km/h (5 Bft)
14.07.2015 17:08 21,8 C 21,1 C 79 % 0 lf 1016,7 hPa 0,0 l/m 0 min 0 min 302 W/m 23,0 km/h (4 Bft)
14.07.2015 17:10 21,8 C 21,1 C 79 % 0 lf 1016,7 hPa 0,0 l/m 2 min 0 min 324 W/m 27,2 km/h (4 Bft)
14.07.2015 17:12 21,8 C 21,1 C 79 % 0 lf 1016,7 hPa 0,0 l/m 2 min 0 min 323 W/m 16,7 km/h (3 Bft)
14.07.2015 17:14 21,8 C 21,1 C 79 % 0 lf 1016,8 hPa 0,0 l/m 2 min 0 min 306 W/m 12,6 km/h (3 Bft)
14.07.2015 17:16 21,9 C 21,1 C 79 % 0 lf 1016,7 hPa 0,0 l/m 2 min 0 min 307 W/m 23,0 km/h (4 Bft)
14.07.2015 17:18 21,9 C 21,1 C 79 % 0 lf 1016,8 hPa 0,0 l/m 2 min 0 min 318 W/m 25,1 km/h (4 Bft)
14.07.2015 17:20 21,9 C 21,1 C 79 % 0 lf 1016,7 hPa 0,0 l/m 2 min 0 min 344 W/m 16,7 km/h (3 Bft)
14.07.2015 17:22 21,9 C 21,1 C 78 % 0 lf 1016,7 hPa 0,0 l/m 2 min 0 min 337 W/m 14,6 km/h (3 Bft)
14.07.2015 17:24 22,0 C 21,7 C 79 % 0 lf 1016,8 hPa 0,0 l/m 2 min 0 min 304 W/m 18,8 km/h (3 Bft)
14.07.2015 17:26 22,0 C 21,1 C 79 % 0 lf 1016,7 hPa 0,0 l/m 2 min 0 min 320 W/m 27,2 km/h (4 Bft)
14.07.2015 17:28 22,1 C 21,7 C 79 % 0 lf 1016,7 hPa 0,0 l/m 2 min 0 min 391 W/m 39,7 km/h (6 Bft)
14.07.2015 17:30 22,1 C 21,1 C 78 % 0 lf 1016,8 hPa 0,0 l/m 2 min 0 min 363 W/m 39,7 km/h (6 Bft)
14.07.2015 17:32 22,1 C 21,1 C 78 % 0 lf 1016,7 hPa 0,0 l/m 0 min 0 min 272 W/m 37,7 km/h (5 Bft)
14.07.2015 17:34 22,1 C 21,1 C 78 % 0 lf 1016,7 hPa 0,0 l/m 0 min 0 min 284 W/m 29,3 km/h (5 Bft)
14.07.2015 17:36 22,0 C 20,6 C 78 % 0 lf 1016,8 hPa 0,0 l/m 2 min 0 min 321 W/m 27,2 km/h (4 Bft)
14.07.2015 17:38 22,0 C 21,1 C 78 % 0 lf 1016,7 hPa 0,0 l/m 2 min 0 min 350 W/m 20,9 km/h (4 Bft)
14.07.2015 17:40 22,0 C 21,1 C 78 % 0 lf 1016,7 hPa 0,0 l/m 2 min 0 min 350 W/m 23,0 km/h (4 Bft)
14.07.2015 17:42 22,1 C 21,1 C 78 % 0 lf 1016,9 hPa 0,0 l/m 2 min 0 min 576 W/m 27,2 km/h (4 Bft)
14.07.2015 17:44 22,1 C 21,1 C 78 % 0 lf 1016,9 hPa 0,0 l/m 2 min 0 min 607 W/m 20,9 km/h (4 Bft)
14.07.2015 17:46 22,2 C 21,1 C 78 % 0 lf 1016,7 hPa 0,0 l/m 2 min 0 min 558 W/m 25,1 km/h (4 Bft)
14.07.2015 17:48 22,2 C 21,1 C 78 % 0 lf 1016,8 hPa 0,0 l/m 2 min 0 min 405 W/m 20,9 km/h (4 Bft)
14.07.2015 17:50 22,2 C 21,1 C 77 % 0 lf 1016,8 hPa 0,0 l/m 2 min 0 min 280 W/m 25,1 km/h (4 Bft)
14.07.2015 17:52 22,2 C 21,1 C 77 % 0 lf 1016,9 hPa 0,0 l/m 2 min 0 min 304 W/m 27,2 km/h (4 Bft)
14.07.2015 17:54 22,3 C 21,1 C 77 % 0 lf 1016,9 hPa 0,0 l/m 2 min 0 min 431 W/m 27,2 km/h (4 Bft)
14.07.2015 17:56 22,3 C 21,1 C 77 % 0 lf 1016,8 hPa 0,0 l/m 2 min 0 min 561 W/m 25,1 km/h (4 Bft)
14.07.2015 17:58 22,3 C 21,1 C 77 % 0 lf 1016,8 hPa 0,0 l/m 0 min 0 min 255 W/m 16,7 km/h (3 Bft)
14.07.2015 18:00 22,3 C 21,1 C 77 % 0 lf 1017,0 hPa 0,0 l/m 0 min 0 min 172 W/m 23,0 km/h (4 Bft)
14.07.2015 18:02 22,3 C 21,1 C 77 % 0 lf 1016,8 hPa 0,0 l/m 0 min 0 min 153 W/m 20,9 km/h (4 Bft)
14.07.2015 18:05 22,2 C 20,6 C 77 % 0 lf 1016,8 hPa 0,0 l/m 0 min 0 min 155 W/m 20,9 km/h (4 Bft)
14.07.2015 18:06 22,2 C 20,6 C 77 % 0 lf 1016,8 hPa 0,0 l/m 0 min 0 min 156 W/m 16,7 km/h (3 Bft)
14.07.2015 18:08 22,2 C 20,6 C 77 % 0 lf 1016,9 hPa 0,0 l/m 0 min 0 min 161 W/m 18,8 km/h (3 Bft)
14.07.2015 18:10 22,2 C 20,6 C 78 % 0 lf 1016,9 hPa 0,0 l/m 0 min 0 min 203 W/m 10,5 km/h (2 Bft)
14.07.2015 18:12 22,2 C 20,6 C 78 % 0 lf 1017,1 hPa 0,0 l/m 0 min 0 min 203 W/m 20,9 km/h (4 Bft)
14.07.2015 18:14 22,2 C 20,6 C 78 % 0 lf 1016,9 hPa 0,0 l/m 0 min 0 min 168 W/m 27,2 km/h (4 Bft)
14.07.2015 18:16 22,1 C 20,6 C 78 % 0 lf 1016,9 hPa 0,0 l/m 0 min 0 min 140 W/m 29,3 km/h (5 Bft)
14.07.2015 18:18 22,1 C 20,6 C 78 % 0 lf 1017,0 hPa 0,0 l/m 0 min 0 min 138 W/m 16,7 km/h (3 Bft)
14.07.2015 18:20 22,0 C 20,0 C 78 % 0 lf 1017,0 hPa 0,0 l/m 0 min 0 min 143 W/m 25,1 km/h (4 Bft)
14.07.2015 18:22 21,9 C 20,0 C 78 % 1 lf 1017,0 hPa 0,0 l/m 0 min 0 min 144 W/m 23,0 km/h (4 Bft)
14.07.2015 18:24 21,9 C 20,0 C 78 % 0 lf 1017,0 hPa 0,0 l/m 0 min 0 min 170 W/m 16,7 km/h (3 Bft)
14.07.2015 18:26 21,9 C 20,0 C 78 % 0 lf 1016,9 hPa 0,0 l/m 0 min 0 min 187 W/m 23,0 km/h (4 Bft)
14.07.2015 18:28 21,8 C 20,6 C 79 % 0 lf 1017,0 hPa 0,0 l/m 0 min 0 min 186 W/m 23,0 km/h (4 Bft)
14.07.2015 18:30 21,8 C 20,6 C 78 % 0 lf 1017,0 hPa 0,0 l/m 0 min 0 min 192 W/m 18,8 km/h (3 Bft)
14.07.2015 18:32 21,7 C 20,6 C 79 % 0 lf 1017,0 hPa 0,0 l/m 0 min 0 min 212 W/m 23,0 km/h (4 Bft)
14.07.2015 18:34 21,7 C 20,6 C 78 % 0 lf 1017,1 hPa 0,0 l/m 0 min 0 min 186 W/m 16,7 km/h (3 Bft)
14.07.2015 18:36 21,7 C 20,6 C 79 % 0 lf 1017,1 hPa 0,0 l/m 0 min 0 min 143 W/m 16,7 km/h (3 Bft)
14.07.2015 18:38 21,7 C 20,6 C 79 % 0 lf 1017,1 hPa 0,0 l/m 0 min 0 min 137 W/m 23,0 km/h (4 Bft)
14.07.2015 18:40 21,7 C 20,6 C 79 % 0 lf 1017,2 hPa 0,0 l/m 0 min 0 min 152 W/m 23,0 km/h (4 Bft)
14.07.2015 18:42 21,7 C 20,6 C 79 % 0 lf 1017,1 hPa 0,0 l/m 0 min 0 min 161 W/m 18,8 km/h (3 Bft)
14.07.2015 18:44 21,7 C 20,6 C 79 % 0 lf 1017,1 hPa 0,0 l/m 0 min 0 min 162 W/m 18,8 km/h (3 Bft)
14.07.2015 18:46 21,7 C 20,6 C 79 % 0 lf 1017,1 hPa 0,0 l/m 0 min 0 min 153 W/m 12,6 km/h (3 Bft)
14.07.2015 18:48 21,7 C 20,6 C 79 % 0 lf 1017,1 hPa 0,0 l/m 0 min 0 min 140 W/m 23,0 km/h (4 Bft)
14.07.2015 18:50 21,6 C 20,6 C 79 % 0 lf 1017,1 hPa 0,0 l/m 0 min 0 min 166 W/m 20,9 km/h (4 Bft)
14.07.2015 18:52 21,6 C 20,6 C 79 % 0 lf 1017,1 hPa 0,0 l/m 0 min 0 min 192 W/m 18,8 km/h (3 Bft)
14.07.2015 18:54 21,6 C 20,6 C 79 % 0 lf 1017,1 hPa 0,0 l/m 2 min 0 min 199 W/m 25,1 km/h (4 Bft)
14.07.2015 18:56 21,6 C 20,6 C 77 % 0 lf 1017,1 hPa 0,0 l/m 2 min 0 min 206 W/m 27,2 km/h (4 Bft)
14.07.2015 18:58 21,5 C 20,6 C 77 % 0 lf 1017,1 hPa 0,0 l/m 0 min 0 min 183 W/m 25,1 km/h (4 Bft)
14.07.2015 19:00 21,5 C 20,0 C 77 % 0 lf 1017,1 hPa 0,0 l/m 0 min 0 min 174 W/m 27,2 km/h (4 Bft)
14.07.2015 19:02 21,5 C 20,0 C 77 % 0 lf 1017,1 hPa 0,0 l/m 0 min 0 min 161 W/m 14,6 km/h (3 Bft)
14.07.2015 19:04 21,4 C 20,0 C 77 % 0 lf 1017,3 hPa 0,0 l/m 0 min 0 min 140 W/m 25,1 km/h (4 Bft)
14.07.2015 19:06 21,4 C 20,0 C 77 % 0 lf 1017,1 hPa 0,0 l/m 0 min 0 min 106 W/m 23,0 km/h (4 Bft)
14.07.2015 19:08 21,4 C 19,4 C 77 % 0 lf 1017,2 hPa 0,0 l/m 0 min 0 min 84 W/m 25,1 km/h (4 Bft)
14.07.2015 19:10 21,4 C 19,4 C 78 % 0 lf 1017,2 hPa 0,0 l/m 0 min 0 min 62 W/m 16,7 km/h (3 Bft)
14.07.2015 19:12 21,4 C 19,4 C 79 % 1 lf 1017,2 hPa 0,0 l/m 0 min 0 min 64 W/m 29,3 km/h (5 Bft)
14.07.2015 19:14 21,3 C 19,4 C 79 % 0 lf 1017,3 hPa 0,0 l/m 0 min 0 min 75 W/m 20,9 km/h (4 Bft)
14.07.2015 19:16 21,3 C 19,4 C 79 % 0 lf 1017,3 hPa 0,0 l/m 0 min 0 min 82 W/m 16,7 km/h (3 Bft)
14.07.2015 19:18 21,3 C 19,4 C 80 % 0 lf 1017,3 hPa 0,0 l/m 0 min 0 min 93 W/m 14,6 km/h (3 Bft)
14.07.2015 19:20 21,2 C 18,9 C 79 % 0 lf 1017,3 hPa 0,0 l/m 0 min 0 min 98 W/m 23,0 km/h (4 Bft)
14.07.2015 19:22 21,1 C 18,9 C 80 % 0 lf 1017,3 hPa 0,0 l/m 0 min 0 min 92 W/m 20,9 km/h (4 Bft)
14.07.2015 19:24 21,1 C 18,9 C 80 % 0 lf 1017,3 hPa 0,0 l/m 0 min 0 min 84 W/m 23,0 km/h (4 Bft)
14.07.2015 19:26 21,0 C 18,9 C 80 % 0 lf 1017,3 hPa 0,0 l/m 0 min 0 min 96 W/m 20,9 km/h (4 Bft)
14.07.2015 19:28 20,9 C 19,4 C 80 % 0 lf 1017,3 hPa 0,0 l/m 0 min 0 min 105 W/m 23,0 km/h (4 Bft)
14.07.2015 19:30 20,9 C 19,4 C 81 % 0 lf 1017,4 hPa 0,0 l/m 0 min 0 min 100 W/m 23,0 km/h (4 Bft)
14.07.2015 19:32 20,8 C 18,9 C 81 % 0 lf 1017,5 hPa 0,0 l/m 0 min 0 min 97 W/m 27,2 km/h (4 Bft)
14.07.2015 19:34 20,8 C 18,9 C 81 % 0 lf 1017,4 hPa 0,0 l/m 0 min 0 min 91 W/m 27,2 km/h (4 Bft)
14.07.2015 19:36 20,7 C 18,9 C 81 % 0 lf 1017,4 hPa 0,0 l/m 0 min 0 min 92 W/m 27,2 km/h (4 Bft)
14.07.2015 19:38 20,7 C 18,9 C 81 % 0 lf 1017,4 hPa 0,0 l/m 0 min 0 min 93 W/m 23,0 km/h (4 Bft)
14.07.2015 19:40 20,6 C 18,9 C 81 % 0 lf 1017,5 hPa 0,0 l/m 0 min 0 min 94 W/m 29,3 km/h (5 Bft)
14.07.2015 19:42 20,5 C 18,9 C 81 % 0 lf 1017,4 hPa 0,0 l/m 0 min 0 min 99 W/m 25,1 km/h (4 Bft)
14.07.2015 19:44 20,4 C 18,9 C 81 % 0 lf 1017,4 hPa 0,0 l/m 0 min 0 min 108 W/m 23,0 km/h (4 Bft)
14.07.2015 19:46 20,4 C 18,9 C 81 % 0 lf 1017,5 hPa 0,0 l/m 0 min 0 min 106 W/m 23,0 km/h (4 Bft)
14.07.2015 19:48 20,4 C 18,9 C 81 % 0 lf 1017,4 hPa 0,0 l/m 0 min 0 min 105 W/m 31,4 km/h (5 Bft)
14.07.2015 19:50 20,3 C 18,9 C 81 % 0 lf 1017,5 hPa 0,0 l/m 0 min 0 min 106 W/m 33,5 km/h (5 Bft)
14.07.2015 19:52 20,3 C 18,9 C 81 % 0 lf 1017,5 hPa 0,0 l/m 0 min 0 min 103 W/m 16,7 km/h (3 Bft)
14.07.2015 19:54 20,3 C 18,9 C 81 % 0 lf 1017,5 hPa 0,0 l/m 0 min 0 min 100 W/m 20,9 km/h (4 Bft)
14.07.2015 19:56 20,3 C 18,9 C 81 % 0 lf 1017,5 hPa 0,0 l/m 0 min 0 min 110 W/m 20,9 km/h (4 Bft)
14.07.2015 19:58 20,2 C 18,9 C 81 % 0 lf 1017,5 hPa 0,0 l/m 2 min 0 min 118 W/m 29,3 km/h (5 Bft)
14.07.2015 20:00 20,2 C 18,9 C 82 % 0 lf 1017,5 hPa 0,0 l/m 2 min 0 min 117 W/m 20,9 km/h (4 Bft)
14.07.2015 20:02 20,2 C 18,9 C 82 % 0 lf 1017,5 hPa 0,0 l/m 0 min 0 min 96 W/m 16,7 km/h (3 Bft)
14.07.2015 20:04 20,2 C 18,9 C 82 % 0 lf 1017,5 hPa 0,0 l/m 0 min 0 min 72 W/m 20,9 km/h (4 Bft)
14.07.2015 20:06 20,2 C 18,3 C 82 % 0 lf 1017,6 hPa 0,0 l/m 0 min 0 min 60 W/m 25,1 km/h (4 Bft)
14.07.2015 20:08 20,1 C 18,3 C 82 % 0 lf 1017,6 hPa 0,0 l/m 0 min 0 min 53 W/m 20,9 km/h (4 Bft)
14.07.2015 20:10 20,1 C 18,3 C 82 % 0 lf 1017,6 hPa 0,0 l/m 0 min 0 min 47 W/m 14,6 km/h (3 Bft)
14.07.2015 20:12 20,1 C 18,3 C 83 % 0 lf 1017,6 hPa 0,0 l/m 0 min 0 min 42 W/m 14,6 km/h (3 Bft)
14.07.2015 20:14 20,0 C 18,3 C 83 % 0 lf 1017,6 hPa 0,0 l/m 0 min 0 min 36 W/m 20,9 km/h (4 Bft)
14.07.2015 20:16 19,9 C 18,3 C 83 % 0 lf 1017,6 hPa 0,0 l/m 0 min 0 min 37 W/m 20,9 km/h (4 Bft)
14.07.2015 20:18 19,9 C 18,3 C 83 % 0 lf 1017,7 hPa 0,0 l/m 0 min 0 min 36 W/m 18,8 km/h (3 Bft)
14.07.2015 20:20 19,8 C 18,3 C 83 % 0 lf 1017,6 hPa 0,0 l/m 0 min 0 min 36 W/m 25,1 km/h (4 Bft)
14.07.2015 20:22 19,8 C 18,3 C 83 % 0 lf 1017,6 hPa 0,0 l/m 0 min 0 min 38 W/m 20,9 km/h (4 Bft)
14.07.2015 20:24 19,8 C 18,3 C 84 % 0 lf 1017,7 hPa 0,0 l/m 0 min 0 min 41 W/m 18,8 km/h (3 Bft)
14.07.2015 20:26 19,7 C 18,3 C 84 % 0 lf 1017,7 hPa 0,0 l/m 0 min 0 min 41 W/m 14,6 km/h (3 Bft)
14.07.2015 20:28 19,7 C 18,3 C 84 % 0 lf 1017,7 hPa 0,0 l/m 0 min 0 min 32 W/m 18,8 km/h (3 Bft)
14.07.2015 20:30 19,7 C 17,8 C 84 % 0 lf 1017,7 hPa 0,0 l/m 0 min 0 min 22 W/m 14,6 km/h (3 Bft)
14.07.2015 20:32 19,7 C 17,8 C 84 % 0 lf 1017,6 hPa 0,0 l/m 0 min 0 min 19 W/m 20,9 km/h (4 Bft)
14.07.2015 20:34 19,6 C 17,8 C 84 % 0 lf 1017,7 hPa 0,0 l/m 0 min 0 min 16 W/m 23,0 km/h (4 Bft)
14.07.2015 20:36 19,6 C 17,8 C 84 % 0 lf 1017,7 hPa 0,0 l/m 0 min 0 min 14 W/m 29,3 km/h (5 Bft)
14.07.2015 20:38 19,5 C 17,8 C 84 % 0 lf 1017,6 hPa 0,0 l/m 0 min 0 min 16 W/m 27,2 km/h (4 Bft)
14.07.2015 20:40 19,5 C 17,8 C 84 % 0 lf 1017,7 hPa 0,0 l/m 0 min 0 min 14 W/m 27,2 km/h (4 Bft)
14.07.2015 20:42 19,4 C 17,8 C 84 % 0 lf 1017,7 hPa 0,0 l/m 0 min 0 min 14 W/m 23,0 km/h (4 Bft)
14.07.2015 20:44 19,4 C 17,8 C 84 % 0 lf 1017,7 hPa 0,0 l/m 0 min 0 min 14 W/m 14,6 km/h (3 Bft)
14.07.2015 20:46 19,4 C 17,8 C 84 % 0 lf 1017,7 hPa 0,0 l/m 0 min 0 min 16 W/m 10,5 km/h (2 Bft)
14.07.2015 20:48 19,4 C 17,8 C 84 % 0 lf 1017,7 hPa 0,0 l/m 0 min 0 min 17 W/m 20,9 km/h (4 Bft)
14.07.2015 20:50 19,4 C 17,8 C 84 % 0 lf 1017,8 hPa 0,0 l/m 0 min 0 min 19 W/m 18,8 km/h (3 Bft)
14.07.2015 20:52 19,3 C 17,8 C 85 % 0 lf 1017,8 hPa 0,0 l/m 0 min 0 min 21 W/m 18,8 km/h (3 Bft)
14.07.2015 20:54 19,3 C 17,8 C 85 % 0 lf 1017,8 hPa 0,0 l/m 0 min 0 min 22 W/m 14,6 km/h (3 Bft)
14.07.2015 20:56 19,3 C 17,8 C 85 % 0 lf 1017,8 hPa 0,0 l/m 0 min 0 min 18 W/m 16,7 km/h (3 Bft)
14.07.2015 20:58 19,3 C 17,8 C 85 % 0 lf 1017,9 hPa 0,0 l/m 0 min 0 min 17 W/m 12,6 km/h (3 Bft)
14.07.2015 21:00 19,3 C 17,8 C 85 % 0 lf 1017,8 hPa 0,0 l/m 0 min 0 min 16 W/m 14,6 km/h (3 Bft)
14.07.2015 21:02 19,2 C 17,8 C 85 % 0 lf 1017,8 hPa 0,0 l/m 0 min 0 min 16 W/m 16,7 km/h (3 Bft)
14.07.2015 21:04 19,2 C 17,8 C 85 % 0 lf 1017,8 hPa 0,0 l/m 0 min 0 min 15 W/m 12,6 km/h (3 Bft)
14.07.2015 21:06 19,2 C 17,8 C 85 % 0 lf 1017,9 hPa 0,0 l/m 0 min 0 min 16 W/m 12,6 km/h (3 Bft)
14.07.2015 21:08 19,2 C 17,8 C 85 % 0 lf 1017,9 hPa 0,0 l/m 0 min 0 min 16 W/m 14,6 km/h (3 Bft)
14.07.2015 21:10 19,2 C 17,8 C 85 % 0 lf 1017,9 hPa 0,0 l/m 0 min 0 min 15 W/m 20,9 km/h (4 Bft)
14.07.2015 21:12 19,2 C 17,8 C 85 % 0 lf 1017,9 hPa 0,0 l/m 0 min 0 min 12 W/m 16,7 km/h (3 Bft)
14.07.2015 21:14 19,1 C 17,2 C 85 % 0 lf 1017,9 hPa 0,0 l/m 0 min 0 min 9 W/m 14,6 km/h (3 Bft)
14.07.2015 21:16 19,1 C 17,2 C 85 % 0 lf 1017,9 hPa 0,0 l/m 0 min 0 min 9 W/m 23,0 km/h (4 Bft)
14.07.2015 21:18 19,1 C 17,2 C 85 % 0 lf 1017,9 hPa 0,0 l/m 0 min 0 min 9 W/m 23,0 km/h (4 Bft)
14.07.2015 21:20 19,1 C 17,2 C 85 % 0 lf 1017,9 hPa 0,0 l/m 0 min 0 min 9 W/m 23,0 km/h (4 Bft)
14.07.2015 21:22 19,0 C 17,2 C 85 % 0 lf 1017,9 hPa 0,0 l/m 0 min 0 min 9 W/m 20,9 km/h (4 Bft)
14.07.2015 21:24 19,0 C 17,2 C 86 % 0 lf 1018,0 hPa 0,0 l/m 0 min 0 min 9 W/m 16,7 km/h (3 Bft)
14.07.2015 21:26 18,9 C 17,2 C 86 % 0 lf 1018,1 hPa 0,0 l/m 0 min 0 min 9 W/m 16,7 km/h (3 Bft)
14.07.2015 21:28 18,9 C 17,2 C 86 % 0 lf 1018,0 hPa 0,0 l/m 0 min 0 min 9 W/m 14,6 km/h (3 Bft)
14.07.2015 21:30 18,9 C 17,2 C 86 % 0 lf 1018,0 hPa 0,0 l/m 0 min 0 min 9 W/m 16,7 km/h (3 Bft)
14.07.2015 21:32 18,9 C 17,2 C 86 % 0 lf 1018,0 hPa 0,0 l/m 0 min 0 min 7 W/m 10,5 km/h (2 Bft)
14.07.2015 21:34 18,9 C 17,2 C 86 % 0 lf 1018,0 hPa 0,0 l/m 0 min 0 min 7 W/m 14,6 km/h (3 Bft)
14.07.2015 21:36 18,9 C 17,2 C 86 % 0 lf 1018,2 hPa 0,0 l/m 0 min 0 min 5 W/m 12,6 km/h (3 Bft)
14.07.2015 21:38 18,8 C 17,2 C 86 % 0 lf 1018,2 hPa 0,0 l/m 0 min 0 min 5 W/m 8,4 km/h (2 Bft)
14.07.2015 21:40 18,8 C 17,2 C 86 % 0 lf 1018,2 hPa 0,0 l/m 0 min 0 min 5 W/m 8,4 km/h (2 Bft)
14.07.2015 21:42 18,8 C 17,2 C 87 % 0 lf 1018,2 hPa 0,0 l/m 0 min 0 min 1 W/m 10,5 km/h (2 Bft)
14.07.2015 21:44 18,8 C 17,2 C 86 % 0 lf 1018,3 hPa 0,0 l/m 0 min 0 min 0 W/m 6,3 km/h (2 Bft)
14.07.2015 21:46 18,8 C 17,2 C 87 % 0 lf 1018,3 hPa 0,0 l/m 0 min 0 min 0 W/m 8,4 km/h (2 Bft)
14.07.2015 21:48 18,8 C 17,2 C 87 % 0 lf 1018,3 hPa 0,0 l/m 0 min 0 min 0 W/m 8,4 km/h (2 Bft)
14.07.2015 21:50 18,8 C 17,2 C 87 % 0 lf 1018,4 hPa 0,0 l/m 0 min 0 min 0 W/m 10,5 km/h (2 Bft)
14.07.2015 21:52 18,8 C 17,2 C 87 % 0 lf 1018,4 hPa 0,0 l/m 0 min 0 min 0 W/m 8,4 km/h (2 Bft)
14.07.2015 21:54 18,7 C 17,2 C 87 % 0 lf 1018,5 hPa 0,0 l/m 0 min 0 min 0 W/m 6,3 km/h (2 Bft)
14.07.2015 21:56 18,7 C 17,2 C 87 % 0 lf 1018,6 hPa 0,0 l/m 0 min 0 min 0 W/m 14,6 km/h (3 Bft)
14.07.2015 21:58 18,7 C 17,2 C 87 % 0 lf 1018,6 hPa 0,0 l/m 0 min 0 min 0 W/m 14,6 km/h (3 Bft)
14.07.2015 22:00 18,7 C 17,2 C 87 % 0 lf 1018,6 hPa 0,0 l/m 0 min 0 min 0 W/m 14,6 km/h (3 Bft)
14.07.2015 22:02 18,6 C 17,2 C 87 % 0 lf 1018,7 hPa 0,0 l/m 0 min 0 min 0 W/m 18,8 km/h (3 Bft)
14.07.2015 22:04 18,6 C 17,2 C 87 % 0 lf 1018,7 hPa 0,0 l/m 0 min 0 min 0 W/m 16,7 km/h (3 Bft)
14.07.2015 22:06 18,6 C 17,2 C 88 % 0 lf 1018,7 hPa 0,0 l/m 0 min 0 min 0 W/m 18,8 km/h (3 Bft)
14.07.2015 22:08 18,6 C 17,2 C 88 % 0 lf 1018,8 hPa 0,0 l/m 0 min 0 min 0 W/m 16,7 km/h (3 Bft)
14.07.2015 22:10 18,6 C 17,2 C 88 % 0 lf 1018,8 hPa 0,0 l/m 0 min 0 min 0 W/m 16,7 km/h (3 Bft)
14.07.2015 22:12 18,6 C 17,2 C 88 % 0 lf 1018,7 hPa 0,0 l/m 0 min 0 min 0 W/m 14,6 km/h (3 Bft)
14.07.2015 22:14 18,5 C 17,2 C 88 % 0 lf 1018,7 hPa 0,0 l/m 0 min 0 min 0 W/m 12,6 km/h (3 Bft)
14.07.2015 22:16 18,5 C 17,2 C 88 % 0 lf 1018,8 hPa 0,0 l/m 0 min 0 min 0 W/m 10,5 km/h (2 Bft)
14.07.2015 22:18 18,5 C 17,2 C 88 % 0 lf 1018,8 hPa 0,0 l/m 0 min 0 min 0 W/m 6,3 km/h (2 Bft)
14.07.2015 22:20 18,5 C 16,7 C 88 % 0 lf 1018,9 hPa 0,0 l/m 0 min 0 min 0 W/m 6,3 km/h (2 Bft)
14.07.2015 22:22 18,5 C 16,7 C 88 % 0 lf 1018,9 hPa 0,0 l/m 0 min 0 min 0 W/m 10,5 km/h (2 Bft)
14.07.2015 22:24 18,5 C 16,7 C 88 % 0 lf 1018,9 hPa 0,0 l/m 0 min 0 min 0 W/m 12,6 km/h (3 Bft)
14.07.2015 22:26 18,4 C 16,7 C 88 % 0 lf 1018,9 hPa 0,0 l/m 0 min 0 min 0 W/m 12,6 km/h (3 Bft)
14.07.2015 22:28 18,4 C 16,7 C 88 % 0 lf 1018,9 hPa 0,0 l/m 0 min 0 min 0 W/m 14,6 km/h (3 Bft)
14.07.2015 22:30 18,4 C 16,7 C 88 % 0 lf 1018,9 hPa 0,0 l/m 0 min 0 min 0 W/m 14,6 km/h (3 Bft)
14.07.2015 22:32 18,4 C 16,7 C 88 % 0 lf 1018,9 hPa 0,0 l/m 0 min 0 min 0 W/m 12,6 km/h (3 Bft)
14.07.2015 22:34 18,4 C 16,7 C 88 % 0 lf 1019,0 hPa 0,0 l/m 0 min 0 min 0 W/m 8,4 km/h (2 Bft)
14.07.2015 22:36 18,4 C 16,7 C 88 % 0 lf 1019,0 hPa 0,0 l/m 0 min 0 min 0 W/m 8,4 km/h (2 Bft)
14.07.2015 22:38 18,4 C 16,7 C 89 % 0 lf 1019,0 hPa 0,0 l/m 0 min 0 min 0 W/m 10,5 km/h (2 Bft)
14.07.2015 22:40 18,4 C 16,7 C 89 % 0 lf 1018,9 hPa 0,0 l/m 0 min 0 min 0 W/m 12,6 km/h (3 Bft)
14.07.2015 22:42 18,4 C 16,7 C 89 % 0 lf 1019,0 hPa 0,0 l/m 0 min 0 min 0 W/m 8,4 km/h (2 Bft)
14.07.2015 22:44 18,4 C 16,7 C 89 % 0 lf 1018,9 hPa 0,0 l/m 0 min 0 min 0 W/m 6,3 km/h (2 Bft)
14.07.2015 22:46 18,4 C 16,7 C 89 % 0 lf 1018,9 hPa 0,0 l/m 0 min 0 min 0 W/m 10,5 km/h (2 Bft)
14.07.2015 22:48 18,3 C 16,7 C 89 % 0 lf 1019,0 hPa 0,0 l/m 0 min 0 min 0 W/m 8,4 km/h (2 Bft)
14.07.2015 22:50 18,3 C 16,7 C 89 % 0 lf 1019,0 hPa 0,0 l/m 0 min 0 min 0 W/m 10,5 km/h (2 Bft)
14.07.2015 22:52 18,3 C 16,7 C 89 % 0 lf 1019,0 hPa 0,0 l/m 0 min 0 min 0 W/m 10,5 km/h (2 Bft)
14.07.2015 22:54 18,3 C 16,7 C 89 % 0 lf 1019,0 hPa 0,0 l/m 0 min 0 min 0 W/m 12,6 km/h (3 Bft)
14.07.2015 22:56 18,3 C 16,7 C 89 % 0 lf 1019,0 hPa 0,0 l/m 0 min 0 min 0 W/m 8,4 km/h (2 Bft)
14.07.2015 22:58 18,3 C 16,7 C 89 % 0 lf 1018,9 hPa 0,0 l/m 0 min 0 min 0 W/m 10,5 km/h (2 Bft)
14.07.2015 23:00 18,3 C 16,7 C 89 % 0 lf 1019,0 hPa 0,0 l/m 0 min 0 min 0 W/m 14,6 km/h (3 Bft)
14.07.2015 23:02 18,3 C 16,7 C 90 % 0 lf 1019,0 hPa 0,0 l/m 0 min 0 min 0 W/m 10,5 km/h (2 Bft)
14.07.2015 23:04 18,3 C 16,7 C 90 % 3 lf 1019,0 hPa 0,0 l/m 0 min 0 min 0 W/m 10,5 km/h (2 Bft)
14.07.2015 23:06 18,2 C 16,1 C 90 % 11 lf 1019,0 hPa 0,0 l/m 0 min 0 min 0 W/m 8,4 km/h (2 Bft)
14.07.2015 23:08 18,2 C 16,1 C 90 % 10 lf 1019,0 hPa 0,0 l/m 0 min 0 min 0 W/m 12,6 km/h (3 Bft)
14.07.2015 23:10 18,2 C 16,1 C 90 % 9 lf 1019,0 hPa 0,0 l/m 0 min 0 min 0 W/m 10,5 km/h (2 Bft)
14.07.2015 23:12 18,2 C 16,1 C 90 % 7 lf 1019,0 hPa 0,0 l/m 0 min 0 min 0 W/m 6,3 km/h (2 Bft)
14.07.2015 23:14 18,2 C 16,1 C 90 % 4 lf 1019,0 hPa 0,0 l/m 0 min 0 min 0 W/m 6,3 km/h (2 Bft)
14.07.2015 23:16 18,2 C 16,1 C 90 % 4 lf 1019,0 hPa 0,0 l/m 0 min 0 min 0 W/m 6,3 km/h (2 Bft)
14.07.2015 23:18 18,1 C 16,1 C 90 % 3 lf 1019,0 hPa 0,0 l/m 0 min 0 min 0 W/m 8,4 km/h (2 Bft)
14.07.2015 23:20 18,1 C 16,1 C 90 % 2 lf 1019,0 hPa 0,0 l/m 0 min 0 min 0 W/m 6,3 km/h (2 Bft)
14.07.2015 23:22 18,1 C 16,1 C 91 % 1 lf 1019,0 hPa 0,0 l/m 0 min 0 min 0 W/m 6,3 km/h (2 Bft)
14.07.2015 23:24 18,1 C 16,1 C 91 % 1 lf 1019,0 hPa 0,0 l/m 0 min 0 min 0 W/m 4,2 km/h (1 Bft)
14.07.2015 23:26 18,1 C 16,1 C 91 % 1 lf 1019,0 hPa 0,0 l/m 0 min 0 min 0 W/m 6,3 km/h (2 Bft)
14.07.2015 23:28 18,1 C 16,1 C 91 % 1 lf 1019,0 hPa 0,0 l/m 0 min 0 min 0 W/m 6,3 km/h (2 Bft)
14.07.2015 23:30 18,1 C 16,1 C 91 % 1 lf 1019,0 hPa 0,0 l/m 0 min 0 min 0 W/m 8,4 km/h (2 Bft)
14.07.2015 23:32 18,0 C 16,1 C 91 % 1 lf 1019,1 hPa 0,0 l/m 0 min 0 min 0 W/m 2,1 km/h (1 Bft)
14.07.2015 23:34 18,0 C 16,1 C 91 % 1 lf 1019,1 hPa 0,0 l/m 0 min 0 min 0 W/m 6,3 km/h (2 Bft)
14.07.2015 23:36 18,0 C 16,1 C 91 % 1 lf 1019,1 hPa 0,0 l/m 0 min 0 min 0 W/m 4,2 km/h (1 Bft)
14.07.2015 23:38 18,0 C 16,1 C 91 % 1 lf 1019,1 hPa 0,0 l/m 0 min 0 min 0 W/m 4,2 km/h (1 Bft)
14.07.2015 23:40 17,9 C 16,1 C 91 % 1 lf 1019,1 hPa 0,0 l/m 0 min 0 min 0 W/m 4,2 km/h (1 Bft)
14.07.2015 23:42 17,9 C 16,1 C 91 % 1 lf 1019,1 hPa 0,0 l/m 0 min 0 min 0 W/m 2,1 km/h (1 Bft)
14.07.2015 23:45 17,9 C 16,1 C 91 % 1 lf 1019,1 hPa 0,0 l/m 0 min 0 min 0 W/m 6,3 km/h (2 Bft)
14.07.2015 23:46 17,9 C 16,1 C 91 % 1 lf 1019,1 hPa 0,0 l/m 0 min 0 min 0 W/m 2,1 km/h (1 Bft)
14.07.2015 23:50 17,9 C 16,1 C 91 % 1 lf 1019,1 hPa 0,0 l/m 0 min 0 min 0 W/m 4,2 km/h (1 Bft)
14.07.2015 23:51 17,9 C 16,1 C 91 % 1 lf 1019,1 hPa 0,0 l/m 0 min 0 min 0 W/m 2,1 km/h (1 Bft)
14.07.2015 23:52 17,9 C 16,1 C 92 % 1 lf 1019,1 hPa 0,0 l/m 0 min 0 min 0 W/m 6,3 km/h (2 Bft)
14.07.2015 23:54 17,9 C 16,1 C 92 % 1 lf 1019,1 hPa 0,0 l/m 0 min 0 min 0 W/m 6,3 km/h (2 Bft)
14.07.2015 23:56 17,8 C 16,1 C 92 % 1 lf 1019,1 hPa 0,0 l/m 0 min 0 min 0 W/m 4,2 km/h (1 Bft)
14.07.2015 23:58 17,8 C 16,1 C 92 % 1 lf 1019,0 hPa 0,0 l/m 0 min 0 min 0 W/m 6,3 km/h (2 Bft)
_ Min-Zeit 01:00 00:28 17:50 10:06 05:43 - - - - 23:32
Minimum _ 16,7 C 15,0 C 77 % 0 lf 1013,9 hPa - - - - 2,1 km/h (1 Bft)
_ Max-Zeit 17:54 14:40 01:20 00:00 23:32 00:12 12:05 00:00 15:12 17:28
Maximum _ 22,3 C 22,2 C 98 % 15 lf 1019,1 hPa 0,2 l/m 2 min 2 min 921 W/m 39,7 km/h
W (6 Bft)
Durchschnitt _ 18,7 C 17,4 C 91 % 6 lf 1015,9 hPa #0,6 l/m #2:03 h #1:47 h 165 W/m 18,4 km/h (3 Bft)
© 2015 W. Hausmann